Wetterdaten: Dienstag, 01.01.2019
Datum Zeit Temp. Aussen Temp. o. S. +5cm Feuchte Auss Luftdruck Regen Sonnenschein Regendauer Solar Windben Empfang
01.01.2019 00:00 7,8 C 7,2 C 6,7 C 98 % 1030,4 hPa 0,0 l/m 0 min 0 min 0 W/m 3,2 km/h (1 Bft) 80,43 %
01.01.2019 00:02 7,8 C 7,2 C 6,7 C 98 % 1030,4 hPa 0,0 l/m 0 min 0 min 0 W/m 3,2 km/h (1 Bft) 94,59 %
01.01.2019 00:04 7,8 C 7,2 C 6,7 C 98 % 1030,4 hPa 0,0 l/m 0 min 0 min 0 W/m 6,4 km/h (2 Bft) 95,74 %
01.01.2019 00:08 7,7 C 7,2 C 6,7 C 98 % 1030,5 hPa 0,0 l/m 0 min 0 min 0 W/m 9,7 km/h (2 Bft) 95,74 %
01.01.2019 00:10 7,7 C 7,2 C 6,7 C 98 % 1030,4 hPa 0,0 l/m 0 min 0 min 0 W/m 3,2 km/h (1 Bft) 95,65 %
01.01.2019 00:12 7,7 C 7,2 C 6,7 C 98 % 1030,3 hPa 0,0 l/m 0 min 0 min 0 W/m 6,4 km/h (2 Bft) 95,74 %
01.01.2019 00:14 7,7 C 7,2 C 6,7 C 98 % 1030,4 hPa 0,0 l/m 0 min 0 min 0 W/m 6,4 km/h (2 Bft) 91,49 %
01.01.2019 00:16 7,7 C 7,2 C 6,7 C 98 % 1030,3 hPa 0,0 l/m 0 min 0 min 0 W/m 6,4 km/h (2 Bft) 95,74 %
01.01.2019 00:18 7,7 C 7,2 C 6,7 C 98 % 1030,1 hPa 0,0 l/m 0 min 0 min 0 W/m 12,9 km/h (3 Bft) 95,74 %
01.01.2019 00:20 7,7 C 7,2 C 6,7 C 98 % 1030,2 hPa 0,0 l/m 0 min 0 min 0 W/m 9,7 km/h (2 Bft) 93,62 %
01.01.2019 00:22 7,7 C 7,2 C 6,7 C 98 % 1030,2 hPa 0,0 l/m 0 min 0 min 0 W/m 19,3 km/h (3 Bft) 95,65 %
01.01.2019 00:24 7,7 C 7,2 C 6,7 C 98 % 1030,2 hPa 0,0 l/m 0 min 0 min 0 W/m 9,7 km/h (2 Bft) 95,74 %
01.01.2019 00:26 7,7 C 7,2 C 6,7 C 98 % 1030,2 hPa 0,0 l/m 0 min 0 min 0 W/m 6,4 km/h (2 Bft) 95,74 %
01.01.2019 00:28 7,7 C 7,2 C 6,7 C 98 % 1030,1 hPa 0,0 l/m 0 min 0 min 0 W/m 12,9 km/h (3 Bft) 93,62 %
01.01.2019 00:30 7,7 C 7,2 C 6,7 C 98 % 1030,2 hPa 0,0 l/m 0 min 0 min 0 W/m 16,1 km/h (3 Bft) 95,74 %
01.01.2019 00:34 7,7 C 7,2 C 6,7 C 98 % 1030,2 hPa 0,0 l/m 0 min 0 min 0 W/m 16,1 km/h (3 Bft) 89,29 %
01.01.2019 00:36 7,7 C 7,2 C 6,7 C 98 % 1030,2 hPa 0,0 l/m 0 min 0 min 0 W/m 6,4 km/h (2 Bft) 100,00 %
01.01.2019 00:40 7,7 C 7,2 C 6,7 C 98 % 1030,1 hPa 0,0 l/m 0 min 0 min 0 W/m 6,4 km/h (2 Bft) 100,00 %
01.01.2019 00:42 7,7 C 7,2 C 6,7 C 98 % 1030,2 hPa 0,0 l/m 0 min 0 min 0 W/m 6,4 km/h (2 Bft) 98,00 %
01.01.2019 00:44 7,7 C 7,2 C 6,7 C 98 % 1030,2 hPa 0,0 l/m 0 min 0 min 0 W/m 6,4 km/h (2 Bft) 95,74 %
01.01.2019 00:46 7,7 C 7,2 C 6,7 C 98 % 1030,3 hPa 0,0 l/m 0 min 0 min 0 W/m 6,4 km/h (2 Bft) 95,65 %
01.01.2019 00:48 7,7 C 7,2 C 6,7 C 98 % 1030,2 hPa 0,0 l/m 0 min 0 min 0 W/m 9,7 km/h (2 Bft) 93,62 %
01.01.2019 00:50 7,7 C 7,2 C 6,7 C 98 % 1030,2 hPa 0,0 l/m 0 min 0 min 0 W/m 3,2 km/h (1 Bft) 93,62 %
01.01.2019 00:54 7,7 C 7,2 C 6,7 C 97 % 1030,1 hPa 0,0 l/m 0 min 0 min 0 W/m 9,7 km/h (2 Bft) 96,81 %
01.01.2019 00:56 7,7 C 7,2 C 6,7 C 97 % 1030,1 hPa 0,0 l/m 0 min 0 min 0 W/m 12,9 km/h (3 Bft) 97,83 %
01.01.2019 00:58 7,7 C 7,2 C 6,7 C 97 % 1030,1 hPa 0,0 l/m 0 min 0 min 0 W/m 9,7 km/h (2 Bft) 100,00 %
01.01.2019 01:00 7,7 C 7,2 C 6,7 C 97 % 1030,1 hPa 0,0 l/m 0 min 0 min 0 W/m 6,4 km/h (2 Bft) 100,00 %
01.01.2019 01:02 7,7 C 7,2 C 6,7 C 98 % 1030,0 hPa 0,0 l/m 0 min 0 min 0 W/m 9,7 km/h (2 Bft) 95,74 %
01.01.2019 01:04 7,7 C 7,2 C 6,7 C 97 % 1030,0 hPa 0,0 l/m 0 min 0 min 0 W/m 6,4 km/h (2 Bft) 97,87 %
01.01.2019 01:06 7,6 C 7,2 C 6,7 C 97 % 1030,0 hPa 0,0 l/m 0 min 0 min 0 W/m 9,7 km/h (2 Bft) 97,87 %
01.01.2019 01:08 7,6 C 7,2 C 6,7 C 97 % 1029,9 hPa 0,0 l/m 0 min 0 min 0 W/m 9,7 km/h (2 Bft) 100,00 %
01.01.2019 01:10 7,6 C 7,2 C 6,7 C 97 % 1029,9 hPa 0,0 l/m 0 min 0 min 0 W/m 6,4 km/h (2 Bft) 100,00 %
01.01.2019 01:12 7,6 C 7,2 C 6,7 C 97 % 1029,9 hPa 0,0 l/m 0 min 0 min 0 W/m 9,7 km/h (2 Bft) 97,87 %
01.01.2019 01:14 7,6 C 7,2 C 6,7 C 97 % 1029,8 hPa 0,0 l/m 0 min 0 min 0 W/m 9,7 km/h (2 Bft) 100,00 %
01.01.2019 01:16 7,6 C 7,2 C 6,7 C 97 % 1029,9 hPa 0,0 l/m 0 min 0 min 0 W/m 32,2 km/h (5 Bft) 100,00 %
01.01.2019 01:18 7,6 C 7,2 C 6,7 C 97 % 1029,9 hPa 0,0 l/m 0 min 0 min 0 W/m 12,9 km/h (3 Bft) 100,00 %
01.01.2019 01:20 7,6 C 7,2 C 6,7 C 97 % 1029,8 hPa 0,0 l/m 0 min 0 min 0 W/m 12,9 km/h (3 Bft) 100,00 %
01.01.2019 01:24 7,6 C 7,2 C 6,7 C 97 % 1029,8 hPa 0,0 l/m 0 min 0 min 0 W/m 12,9 km/h (3 Bft) 97,92 %
01.01.2019 01:26 7,6 C 7,2 C 6,7 C 97 % 1029,7 hPa 0,0 l/m 0 min 0 min 0 W/m 19,3 km/h (3 Bft) 93,62 %
01.01.2019 01:28 7,6 C 7,2 C 6,7 C 97 % 1029,8 hPa 0,0 l/m 0 min 0 min 0 W/m 12,9 km/h (3 Bft) 97,87 %
01.01.2019 01:30 7,6 C 7,2 C 6,7 C 97 % 1029,8 hPa 0,0 l/m 0 min 0 min 0 W/m 9,7 km/h (2 Bft) 100,00 %
01.01.2019 01:32 7,6 C 7,2 C 6,7 C 97 % 1029,7 hPa 0,0 l/m 0 min 0 min 0 W/m 9,7 km/h (2 Bft) 100,00 %
01.01.2019 01:34 7,6 C 7,2 C 6,7 C 97 % 1029,8 hPa 0,0 l/m 0 min 0 min 0 W/m 9,7 km/h (2 Bft) 97,87 %
01.01.2019 01:36 7,6 C 7,2 C 6,7 C 97 % 1029,8 hPa 0,0 l/m 0 min 0 min 0 W/m 16,1 km/h (3 Bft) 97,87 %
01.01.2019 01:38 7,6 C 7,2 C 6,7 C 97 % 1029,8 hPa 0,0 l/m 0 min 0 min 0 W/m 9,7 km/h (2 Bft) 100,00 %
01.01.2019 01:40 7,6 C 7,2 C 6,7 C 97 % 1029,7 hPa 0,0 l/m 0 min 0 min 0 W/m 9,7 km/h (2 Bft) 97,87 %
01.01.2019 01:42 7,6 C 7,2 C 6,7 C 97 % 1029,7 hPa 0,0 l/m 0 min 0 min 0 W/m 16,1 km/h (3 Bft) 95,74 %
01.01.2019 01:44 7,6 C 7,2 C 6,7 C 97 % 1029,9 hPa 0,0 l/m 0 min 0 min 0 W/m 12,9 km/h (3 Bft) 97,83 %
01.01.2019 01:46 7,6 C 7,2 C 6,7 C 97 % 1029,8 hPa 0,0 l/m 0 min 0 min 0 W/m 12,9 km/h (3 Bft) 95,74 %
01.01.2019 01:48 7,6 C 7,2 C 6,7 C 97 % 1029,8 hPa 0,0 l/m 0 min 0 min 0 W/m 16,1 km/h (3 Bft) 97,87 %
01.01.2019 01:50 7,6 C 6,7 C 6,1 C 97 % 1029,8 hPa 0,0 l/m 0 min 0 min 0 W/m 16,1 km/h (3 Bft) 95,74 %
01.01.2019 01:54 7,6 C 6,7 C 6,1 C 97 % 1029,6 hPa 0,0 l/m 0 min 0 min 0 W/m 12,9 km/h (3 Bft) 97,87 %
01.01.2019 01:56 7,6 C 6,7 C 6,1 C 96 % 1029,7 hPa 0,0 l/m 0 min 0 min 0 W/m 6,4 km/h (2 Bft) 97,83 %
01.01.2019 01:58 7,6 C 6,7 C 6,1 C 96 % 1029,7 hPa 0,0 l/m 0 min 0 min 0 W/m 9,7 km/h (2 Bft) 97,87 %
01.01.2019 02:00 7,6 C 6,7 C 6,1 C 96 % 1029,7 hPa 0,0 l/m 0 min 0 min 0 W/m 12,9 km/h (3 Bft) 97,73 %
01.01.2019 02:02 7,5 C 6,7 C 6,1 C 96 % 1029,8 hPa 0,0 l/m 0 min 0 min 0 W/m 6,4 km/h (2 Bft) 97,87 %
01.01.2019 02:04 7,5 C 6,7 C 6,1 C 96 % 1029,7 hPa 0,0 l/m 0 min 0 min 0 W/m 6,4 km/h (2 Bft) 97,87 %
01.01.2019 02:06 7,5 C 6,7 C 6,1 C 96 % 1029,8 hPa 0,0 l/m 0 min 0 min 0 W/m 9,7 km/h (2 Bft) 96,00 %
01.01.2019 02:08 7,5 C 6,7 C 6,1 C 96 % 1029,8 hPa 0,0 l/m 0 min 0 min 0 W/m 12,9 km/h (3 Bft) 97,83 %
01.01.2019 02:10 7,5 C 6,7 C 6,1 C 96 % 1029,7 hPa 0,0 l/m 0 min 0 min 0 W/m 9,7 km/h (2 Bft) 97,87 %
01.01.2019 02:12 7,5 C 6,7 C 6,1 C 96 % 1029,6 hPa 0,0 l/m 0 min 0 min 0 W/m 9,7 km/h (2 Bft) 97,87 %
01.01.2019 02:14 7,5 C 6,7 C 6,1 C 96 % 1029,6 hPa 0,0 l/m 0 min 0 min 0 W/m 6,4 km/h (2 Bft) 97,87 %
01.01.2019 02:16 7,5 C 6,7 C 6,1 C 96 % 1029,6 hPa 0,0 l/m 0 min 0 min 0 W/m 6,4 km/h (2 Bft) 97,87 %
01.01.2019 02:18 7,5 C 6,7 C 6,1 C 96 % 1029,5 hPa 0,0 l/m 0 min 0 min 0 W/m 9,7 km/h (2 Bft) 97,83 %
01.01.2019 02:20 7,4 C 6,7 C 6,1 C 96 % 1029,5 hPa 0,0 l/m 0 min 0 min 0 W/m 12,9 km/h (3 Bft) 95,74 %
01.01.2019 02:24 7,4 C 6,7 C 6,1 C 96 % 1029,5 hPa 0,0 l/m 0 min 0 min 0 W/m 12,9 km/h (3 Bft) 97,87 %
01.01.2019 02:26 7,4 C 6,7 C 6,1 C 96 % 1029,4 hPa 0,0 l/m 0 min 0 min 0 W/m 22,5 km/h (4 Bft) 97,87 %
01.01.2019 02:28 7,4 C 6,7 C 6,1 C 96 % 1029,5 hPa 0,0 l/m 0 min 0 min 0 W/m 16,1 km/h (3 Bft) 100,00 %
01.01.2019 02:30 7,4 C 6,7 C 6,1 C 96 % 1029,5 hPa 0,0 l/m 0 min 0 min 0 W/m 12,9 km/h (3 Bft) 100,00 %
01.01.2019 02:32 7,4 C 6,7 C 6,1 C 96 % 1029,5 hPa 0,0 l/m 0 min 0 min 0 W/m 16,1 km/h (3 Bft) 100,00 %
01.01.2019 02:34 7,4 C 6,7 C 6,1 C 96 % 1029,5 hPa 0,0 l/m 0 min 0 min 0 W/m 9,7 km/h (2 Bft) 100,00 %
01.01.2019 02:36 7,4 C 6,7 C 6,1 C 96 % 1029,4 hPa 0,0 l/m 0 min 0 min 0 W/m 12,9 km/h (3 Bft) 97,87 %
01.01.2019 02:38 7,4 C 6,7 C 6,1 C 96 % 1029,4 hPa 0,0 l/m 0 min 0 min 0 W/m 9,7 km/h (2 Bft) 100,00 %
01.01.2019 02:40 7,4 C 6,7 C 6,1 C 96 % 1029,4 hPa 0,0 l/m 0 min 0 min 0 W/m 9,7 km/h (2 Bft) 100,00 %
01.01.2019 02:42 7,4 C 6,7 C 6,1 C 96 % 1029,3 hPa 0,0 l/m 0 min 0 min 0 W/m 9,7 km/h (2 Bft) 97,83 %
01.01.2019 02:44 7,3 C 6,7 C 6,1 C 96 % 1029,3 hPa 0,0 l/m 0 min 0 min 0 W/m 6,4 km/h (2 Bft) 97,87 %
01.01.2019 02:46 7,3 C 6,7 C 6,1 C 96 % 1029,4 hPa 0,0 l/m 0 min 0 min 0 W/m 9,7 km/h (2 Bft) 97,87 %
01.01.2019 02:48 7,3 C 6,7 C 6,1 C 96 % 1029,3 hPa 0,0 l/m 0 min 0 min 0 W/m 12,9 km/h (3 Bft) 95,74 %
01.01.2019 02:50 7,3 C 6,7 C 6,1 C 96 % 1029,3 hPa 0,0 l/m 0 min 0 min 0 W/m 9,7 km/h (2 Bft) 95,74 %
01.01.2019 02:54 7,3 C 6,7 C 6,1 C 96 % 1029,3 hPa 0,0 l/m 0 min 0 min 0 W/m 6,4 km/h (2 Bft) 98,02 %
01.01.2019 02:56 7,3 C 6,7 C 6,1 C 96 % 1029,3 hPa 0,0 l/m 0 min 0 min 0 W/m 6,4 km/h (2 Bft) 97,87 %
01.01.2019 02:58 7,3 C 6,7 C 6,1 C 96 % 1029,3 hPa 0,0 l/m 0 min 0 min 0 W/m 12,9 km/h (3 Bft) 97,87 %
01.01.2019 03:00 7,3 C 6,7 C 6,1 C 96 % 1029,3 hPa 0,0 l/m 0 min 0 min 0 W/m 9,7 km/h (2 Bft) 97,87 %
01.01.2019 03:02 7,3 C 6,7 C 6,1 C 96 % 1029,3 hPa 0,0 l/m 0 min 0 min 0 W/m 9,7 km/h (2 Bft) 97,83 %
01.01.2019 03:04 7,3 C 6,7 C 6,1 C 96 % 1029,3 hPa 0,0 l/m 0 min 0 min 0 W/m 9,7 km/h (2 Bft) 95,74 %
01.01.2019 03:06 7,3 C 6,7 C 6,1 C 96 % 1029,3 hPa 0,0 l/m 0 min 0 min 0 W/m 6,4 km/h (2 Bft) 95,74 %
01.01.2019 03:08 7,3 C 6,7 C 6,1 C 96 % 1029,3 hPa 0,0 l/m 0 min 0 min 0 W/m 3,2 km/h (1 Bft) 97,87 %
01.01.2019 03:10 7,3 C 6,7 C 6,1 C 96 % 1029,2 hPa 0,0 l/m 0 min 0 min 0 W/m 9,7 km/h (2 Bft) 97,87 %
01.01.2019 03:12 7,3 C 6,7 C 6,1 C 96 % 1029,2 hPa 0,0 l/m 0 min 0 min 0 W/m 6,4 km/h (2 Bft) 97,83 %
01.01.2019 03:14 7,3 C 6,7 C 6,1 C 96 % 1029,3 hPa 0,0 l/m 0 min 0 min 0 W/m 6,4 km/h (2 Bft) 97,87 %
01.01.2019 03:16 7,3 C 6,7 C 6,1 C 96 % 1029,2 hPa 0,0 l/m 0 min 0 min 0 W/m 9,7 km/h (2 Bft) 91,49 %
01.01.2019 03:18 7,3 C 6,7 C 6,1 C 96 % 1029,2 hPa 0,0 l/m 0 min 0 min 0 W/m 6,4 km/h (2 Bft) 97,87 %
01.01.2019 03:20 7,2 C 6,7 C 6,1 C 96 % 1029,1 hPa 0,0 l/m 0 min 0 min 0 W/m 19,3 km/h (3 Bft) 91,49 %
01.01.2019 03:24 7,2 C 6,7 C 6,1 C 96 % 1029,2 hPa 0,0 l/m 0 min 0 min 0 W/m 12,9 km/h (3 Bft) 95,18 %
01.01.2019 03:26 7,2 C 6,7 C 6,1 C 96 % 1029,1 hPa 0,0 l/m 0 min 0 min 0 W/m 9,7 km/h (2 Bft) 95,74 %
01.01.2019 03:28 7,2 C 6,7 C 6,1 C 96 % 1029,1 hPa 0,0 l/m 0 min 0 min 0 W/m 9,7 km/h (2 Bft) 97,96 %
01.01.2019 03:30 7,2 C 6,7 C 6,1 C 96 % 1029,1 hPa 0,0 l/m 0 min 0 min 0 W/m 6,4 km/h (2 Bft) 95,74 %
01.01.2019 03:32 7,2 C 6,7 C 6,1 C 96 % 1029,1 hPa 0,0 l/m 0 min 0 min 0 W/m 6,4 km/h (2 Bft) 97,87 %
01.01.2019 03:34 7,2 C 6,7 C 6,1 C 96 % 1029,1 hPa 0,0 l/m 0 min 0 min 0 W/m 9,7 km/h (2 Bft) 95,74 %
01.01.2019 03:36 7,2 C 6,7 C 6,1 C 96 % 1029,1 hPa 0,0 l/m 0 min 0 min 0 W/m 12,9 km/h (3 Bft) 94,83 %
01.01.2019 03:38 7,2 C 6,7 C 6,1 C 96 % 1029,1 hPa 0,0 l/m 0 min 0 min 0 W/m 12,9 km/h (3 Bft) 94,29 %
01.01.2019 03:40 7,2 C 6,7 C 6,1 C 96 % 1029,1 hPa 0,0 l/m 0 min 0 min 0 W/m 6,4 km/h (2 Bft) 97,87 %
01.01.2019 03:42 7,2 C 6,7 C 6,1 C 96 % 1029,1 hPa 0,0 l/m 0 min 0 min 0 W/m 12,9 km/h (3 Bft) 97,87 %
01.01.2019 03:44 7,2 C 6,7 C 6,1 C 96 % 1029,0 hPa 0,0 l/m 0 min 0 min 0 W/m 16,1 km/h (3 Bft) 97,87 %
01.01.2019 03:46 7,2 C 6,7 C 6,1 C 96 % 1028,9 hPa 0,0 l/m 0 min 0 min 0 W/m 16,1 km/h (3 Bft) 97,87 %
01.01.2019 03:48 7,2 C 6,7 C 6,1 C 96 % 1029,0 hPa 0,0 l/m 0 min 0 min 0 W/m 19,3 km/h (3 Bft) 95,74 %
01.01.2019 03:50 7,2 C 6,7 C 6,1 C 96 % 1028,9 hPa 0,0 l/m 0 min 0 min 0 W/m 9,7 km/h (2 Bft) 97,83 %
01.01.2019 03:54 7,2 C 6,7 C 6,1 C 96 % 1029,0 hPa 0,0 l/m 0 min 0 min 0 W/m 12,9 km/h (3 Bft) 94,68 %
01.01.2019 03:56 7,2 C 6,7 C 6,1 C 96 % 1029,0 hPa 0,0 l/m 0 min 0 min 0 W/m 9,7 km/h (2 Bft) 97,87 %
01.01.2019 03:58 7,2 C 6,1 C 6,1 C 96 % 1029,0 hPa 0,0 l/m 0 min 0 min 0 W/m 9,7 km/h (2 Bft) 97,87 %
01.01.2019 04:00 7,2 C 6,1 C 6,1 C 97 % 1028,9 hPa 0,0 l/m 0 min 0 min 0 W/m 12,9 km/h (3 Bft) 95,74 %
01.01.2019 04:02 7,2 C 6,1 C 6,1 C 97 % 1028,9 hPa 0,0 l/m 0 min 0 min 0 W/m 16,1 km/h (3 Bft) 96,55 %
01.01.2019 04:04 7,2 C 6,1 C 6,1 C 97 % 1028,9 hPa 0,0 l/m 0 min 0 min 0 W/m 6,4 km/h (2 Bft) 100,00 %
01.01.2019 04:06 7,2 C 6,1 C 5,6 C 97 % 1028,8 hPa 0,0 l/m 0 min 2 min 0 W/m 9,7 km/h (2 Bft) 96,61 %
01.01.2019 04:08 7,2 C 6,1 C 5,6 C 97 % 1028,7 hPa 0,0 l/m 0 min 0 min 0 W/m 9,7 km/h (2 Bft) 100,00 %
01.01.2019 04:10 7,2 C 6,1 C 5,6 C 97 % 1028,7 hPa 0,0 l/m 0 min 0 min 0 W/m 9,7 km/h (2 Bft) 95,74 %
01.01.2019 04:12 7,2 C 6,1 C 5,6 C 97 % 1028,6 hPa 0,0 l/m 0 min 0 min 0 W/m 9,7 km/h (2 Bft) 93,62 %
01.01.2019 04:14 7,2 C 6,1 C 5,6 C 97 % 1028,6 hPa 0,0 l/m 0 min 2 min 0 W/m 12,9 km/h (3 Bft) 97,83 %
01.01.2019 04:16 7,2 C 6,1 C 5,6 C 97 % 1028,6 hPa 0,0 l/m 0 min 2 min 0 W/m 9,7 km/h (2 Bft) 100,00 %
01.01.2019 04:18 7,1 C 6,1 C 5,6 C 97 % 1028,6 hPa 0,0 l/m 0 min 0 min 0 W/m 19,3 km/h (3 Bft) 97,87 %
01.01.2019 04:20 7,1 C 6,1 C 5,6 C 96 % 1028,5 hPa 0,0 l/m 0 min 2 min 0 W/m 9,7 km/h (2 Bft) 97,87 %
01.01.2019 04:24 7,1 C 6,1 C 5,6 C 97 % 1028,5 hPa 0,0 l/m 0 min 4 min 0 W/m 12,9 km/h (3 Bft) 98,94 %
01.01.2019 04:26 7,1 C 6,1 C 5,6 C 97 % 1028,5 hPa 0,0 l/m 0 min 2 min 0 W/m 9,7 km/h (2 Bft) 97,83 %
01.01.2019 04:28 7,1 C 6,1 C 5,6 C 97 % 1028,5 hPa 0,0 l/m 0 min 0 min 0 W/m 16,1 km/h (3 Bft) 100,00 %
01.01.2019 04:30 7,1 C 6,1 C 5,6 C 97 % 1028,4 hPa 0,0 l/m 0 min 0 min 0 W/m 9,7 km/h (2 Bft) 97,87 %
01.01.2019 04:32 7,1 C 6,1 C 5,6 C 97 % 1028,4 hPa 0,0 l/m 0 min 0 min 0 W/m 12,9 km/h (3 Bft) 95,74 %
01.01.2019 04:34 7,1 C 6,1 C 5,6 C 97 % 1028,4 hPa 0,0 l/m 0 min 0 min 0 W/m 12,9 km/h (3 Bft) 97,87 %
01.01.2019 04:36 7,1 C 6,1 C 5,6 C 97 % 1028,3 hPa 0,0 l/m 0 min 0 min 0 W/m 9,7 km/h (2 Bft) 97,87 %
01.01.2019 04:38 7,0 C 6,1 C 5,6 C 97 % 1028,3 hPa 0,0 l/m 0 min 0 min 0 W/m 9,7 km/h (2 Bft) 97,83 %
01.01.2019 04:40 7,0 C 6,1 C 5,6 C 97 % 1028,2 hPa 0,0 l/m 0 min 0 min 0 W/m 16,1 km/h (3 Bft) 97,87 %
01.01.2019 04:42 7,0 C 6,1 C 5,6 C 97 % 1028,1 hPa 0,0 l/m 0 min 0 min 0 W/m 25,7 km/h (4 Bft) 93,62 %
01.01.2019 04:44 7,0 C 6,1 C 5,6 C 97 % 1028,0 hPa 0,0 l/m 0 min 0 min 0 W/m 9,7 km/h (2 Bft) 95,74 %
01.01.2019 04:46 7,0 C 6,1 C 5,6 C 97 % 1028,0 hPa 0,0 l/m 0 min 0 min 0 W/m 6,4 km/h (2 Bft) 95,74 %
01.01.2019 04:48 6,9 C 6,7 C 5,6 C 97 % 1028,0 hPa 0,0 l/m 0 min 0 min 0 W/m 12,9 km/h (3 Bft) 95,74 %
01.01.2019 04:50 6,9 C 6,7 C 5,6 C 97 % 1028,0 hPa 0,0 l/m 0 min 0 min 0 W/m 6,4 km/h (2 Bft) 97,83 %
01.01.2019 04:54 6,9 C 6,7 C 5,6 C 97 % 1028,1 hPa 0,0 l/m 0 min 0 min 0 W/m 16,1 km/h (3 Bft) 97,87 %
01.01.2019 04:56 6,9 C 6,7 C 6,1 C 97 % 1027,9 hPa 0,0 l/m 0 min 0 min 0 W/m 9,7 km/h (2 Bft) 97,87 %
01.01.2019 04:58 6,9 C 6,7 C 6,1 C 97 % 1027,9 hPa 0,0 l/m 0 min 0 min 0 W/m 9,7 km/h (2 Bft) 93,62 %
01.01.2019 05:00 6,9 C 6,7 C 6,1 C 97 % 1027,9 hPa 0,0 l/m 0 min 0 min 0 W/m 6,4 km/h (2 Bft) 95,74 %
01.01.2019 05:02 6,9 C 6,7 C 6,1 C 97 % 1027,8 hPa 0,0 l/m 0 min 0 min 0 W/m 9,7 km/h (2 Bft) 95,65 %
01.01.2019 05:04 6,9 C 6,7 C 6,1 C 97 % 1027,8 hPa 0,0 l/m 0 min 0 min 0 W/m 12,9 km/h (3 Bft) 97,87 %
01.01.2019 05:05 6,9 C 6,7 C 6,1 C 97 % 1027,8 hPa 0,0 l/m 0 min 0 min 0 W/m 12,9 km/h (3 Bft) 99,12 %
01.01.2019 05:10 6,9 C 6,7 C 6,1 C 97 % 1027,7 hPa 0,0 l/m 0 min 0 min 0 W/m 12,9 km/h (3 Bft) 100,00 %
01.01.2019 05:12 6,9 C 6,7 C 6,1 C 97 % 1027,7 hPa 0,0 l/m 0 min 0 min 0 W/m 12,9 km/h (3 Bft) 100,00 %
01.01.2019 05:14 6,9 C 6,7 C 6,1 C 97 % 1027,7 hPa 0,0 l/m 0 min 0 min 0 W/m 12,9 km/h (3 Bft) 97,56 %
01.01.2019 05:16 6,9 C 6,7 C 6,1 C 97 % 1027,7 hPa 0,0 l/m 0 min 0 min 0 W/m 12,9 km/h (3 Bft) 98,00 %
01.01.2019 05:18 6,9 C 6,7 C 6,1 C 97 % 1027,7 hPa 0,0 l/m 0 min 0 min 0 W/m 9,7 km/h (2 Bft) 97,96 %
01.01.2019 05:20 6,9 C 6,7 C 6,1 C 96 % 1027,7 hPa 0,0 l/m 0 min 0 min 0 W/m 9,7 km/h (2 Bft) 97,87 %
01.01.2019 05:22 6,9 C 6,7 C 6,1 C 96 % 1027,6 hPa 0,0 l/m 0 min 0 min 0 W/m 16,1 km/h (3 Bft) 97,56 %
01.01.2019 05:24 6,9 C 6,7 C 6,1 C 96 % 1027,6 hPa 0,0 l/m 0 min 0 min 0 W/m 9,7 km/h (2 Bft) 98,00 %
01.01.2019 05:26 6,9 C 6,7 C 6,1 C 96 % 1027,6 hPa 0,0 l/m 0 min 0 min 0 W/m 19,3 km/h (3 Bft) 95,92 %
01.01.2019 05:28 6,9 C 6,7 C 6,1 C 96 % 1027,6 hPa 0,0 l/m 0 min 0 min 0 W/m 6,4 km/h (2 Bft) 97,87 %
01.01.2019 05:30 6,9 C 6,7 C 6,1 C 96 % 1027,6 hPa 0,0 l/m 0 min 0 min 0 W/m 9,7 km/h (2 Bft) 97,62 %
01.01.2019 05:32 6,9 C 6,7 C 6,1 C 96 % 1027,7 hPa 0,0 l/m 0 min 0 min 0 W/m 9,7 km/h (2 Bft) 97,96 %
01.01.2019 05:34 6,9 C 6,7 C 6,1 C 96 % 1027,7 hPa 0,0 l/m 0 min 0 min 0 W/m 9,7 km/h (2 Bft) 98,00 %
01.01.2019 05:36 6,9 C 6,7 C 6,1 C 96 % 1027,7 hPa 0,0 l/m 0 min 0 min 0 W/m 16,1 km/h (3 Bft) 95,65 %
01.01.2019 05:38 6,9 C 6,7 C 6,1 C 96 % 1027,6 hPa 0,0 l/m 0 min 0 min 0 W/m 16,1 km/h (3 Bft) 97,87 %
01.01.2019 05:40 6,9 C 6,7 C 6,1 C 96 % 1027,5 hPa 0,0 l/m 0 min 0 min 0 W/m 12,9 km/h (3 Bft) 95,74 %
01.01.2019 05:42 6,9 C 6,7 C 6,1 C 96 % 1027,5 hPa 0,0 l/m 0 min 0 min 0 W/m 6,4 km/h (2 Bft) 97,62 %
01.01.2019 05:44 6,9 C 6,7 C 6,1 C 96 % 1027,4 hPa 0,0 l/m 0 min 0 min 0 W/m 12,9 km/h (3 Bft) 95,92 %
01.01.2019 05:46 6,9 C 6,7 C 6,1 C 96 % 1027,4 hPa 0,0 l/m 0 min 0 min 0 W/m 16,1 km/h (3 Bft) 98,00 %
01.01.2019 05:48 6,9 C 6,7 C 6,1 C 96 % 1027,4 hPa 0,0 l/m 0 min 0 min 0 W/m 16,1 km/h (3 Bft) 97,83 %
01.01.2019 05:50 6,9 C 6,7 C 6,1 C 96 % 1027,4 hPa 0,0 l/m 0 min 0 min 0 W/m 16,1 km/h (3 Bft) 97,62 %
01.01.2019 05:52 6,9 C 6,7 C 6,1 C 96 % 1027,3 hPa 0,0 l/m 0 min 0 min 0 W/m 12,9 km/h (3 Bft) 98,00 %
01.01.2019 05:54 6,9 C 6,7 C 6,1 C 96 % 1027,2 hPa 0,0 l/m 0 min 0 min 0 W/m 12,9 km/h (3 Bft) 95,92 %
01.01.2019 05:56 6,9 C 6,7 C 6,1 C 96 % 1027,1 hPa 0,0 l/m 0 min 0 min 0 W/m 12,9 km/h (3 Bft) 97,87 %
01.01.2019 05:58 6,9 C 6,7 C 6,1 C 96 % 1027,0 hPa 0,0 l/m 0 min 0 min 0 W/m 12,9 km/h (3 Bft) 95,12 %
01.01.2019 06:00 6,9 C 6,7 C 6,1 C 96 % 1027,0 hPa 0,0 l/m 0 min 0 min 0 W/m 9,7 km/h (2 Bft) 97,87 %
01.01.2019 06:02 6,9 C 6,7 C 6,1 C 96 % 1027,0 hPa 0,0 l/m 0 min 0 min 0 W/m 12,9 km/h (3 Bft) 100,00 %
01.01.2019 06:04 6,9 C 6,7 C 6,1 C 96 % 1027,0 hPa 0,0 l/m 0 min 0 min 0 W/m 16,1 km/h (3 Bft) 100,00 %
01.01.2019 06:08 6,9 C 6,7 C 6,1 C 96 % 1027,1 hPa 0,0 l/m 0 min 0 min 0 W/m 22,5 km/h (4 Bft) 98,94 %
01.01.2019 06:10 6,9 C 6,7 C 6,1 C 96 % 1026,9 hPa 0,0 l/m 0 min 0 min 0 W/m 16,1 km/h (3 Bft) 100,00 %
01.01.2019 06:12 6,8 C 6,7 C 6,1 C 96 % 1027,0 hPa 0,0 l/m 0 min 0 min 0 W/m 12,9 km/h (3 Bft) 100,00 %
01.01.2019 06:14 6,8 C 6,7 C 6,1 C 96 % 1027,0 hPa 0,0 l/m 0 min 0 min 0 W/m 12,9 km/h (3 Bft) 97,87 %
01.01.2019 06:16 6,8 C 6,7 C 6,1 C 96 % 1027,1 hPa 0,0 l/m 0 min 0 min 0 W/m 12,9 km/h (3 Bft) 97,96 %
01.01.2019 06:18 6,8 C 6,7 C 6,1 C 95 % 1027,1 hPa 0,0 l/m 0 min 0 min 0 W/m 9,7 km/h (2 Bft) 100,00 %
01.01.2019 06:20 6,8 C 6,7 C 6,1 C 95 % 1027,1 hPa 0,0 l/m 0 min 0 min 0 W/m 16,1 km/h (3 Bft) 100,00 %
01.01.2019 06:22 6,9 C 6,7 C 6,1 C 95 % 1027,2 hPa 0,0 l/m 0 min 0 min 0 W/m 12,9 km/h (3 Bft) 97,87 %
01.01.2019 06:24 6,9 C 6,7 C 6,1 C 95 % 1027,1 hPa 0,0 l/m 0 min 0 min 0 W/m 12,9 km/h (3 Bft) 100,00 %
01.01.2019 06:26 6,9 C 6,7 C 6,1 C 95 % 1027,1 hPa 0,0 l/m 0 min 0 min 0 W/m 16,1 km/h (3 Bft) 100,00 %
01.01.2019 06:28 6,9 C 6,7 C 6,1 C 95 % 1027,0 hPa 0,0 l/m 0 min 0 min 0 W/m 16,1 km/h (3 Bft) 100,00 %
01.01.2019 06:30 6,9 C 6,7 C 6,1 C 95 % 1027,1 hPa 0,0 l/m 0 min 0 min 0 W/m 12,9 km/h (3 Bft) 97,96 %
01.01.2019 06:32 6,9 C 6,7 C 6,1 C 95 % 1027,0 hPa 0,0 l/m 0 min 0 min 0 W/m 9,7 km/h (2 Bft) 97,87 %
01.01.2019 06:34 6,9 C 6,7 C 6,1 C 95 % 1026,9 hPa 0,0 l/m 0 min 0 min 0 W/m 16,1 km/h (3 Bft) 97,56 %
01.01.2019 06:36 6,9 C 6,7 C 6,1 C 95 % 1026,9 hPa 0,0 l/m 0 min 0 min 0 W/m 12,9 km/h (3 Bft) 100,00 %
01.01.2019 06:38 6,9 C 6,7 C 6,1 C 95 % 1027,0 hPa 0,0 l/m 0 min 0 min 0 W/m 16,1 km/h (3 Bft) 97,87 %
01.01.2019 06:40 6,9 C 6,7 C 6,1 C 95 % 1027,0 hPa 0,0 l/m 0 min 0 min 0 W/m 22,5 km/h (4 Bft) 97,87 %
01.01.2019 06:42 6,9 C 6,7 C 6,1 C 95 % 1027,0 hPa 0,0 l/m 0 min 0 min 0 W/m 16,1 km/h (3 Bft) 97,96 %
01.01.2019 06:44 6,9 C 6,7 C 6,1 C 95 % 1027,0 hPa 0,0 l/m 0 min 0 min 0 W/m 22,5 km/h (4 Bft) 97,87 %
01.01.2019 06:46 6,9 C 6,7 C 6,1 C 95 % 1027,1 hPa 0,0 l/m 0 min 0 min 0 W/m 16,1 km/h (3 Bft) 97,56 %
01.01.2019 06:48 6,9 C 6,7 C 6,1 C 95 % 1026,9 hPa 0,0 l/m 0 min 0 min 0 W/m 16,1 km/h (3 Bft) 98,00 %
01.01.2019 06:50 6,9 C 6,7 C 6,1 C 95 % 1026,9 hPa 0,0 l/m 0 min 0 min 0 W/m 12,9 km/h (3 Bft) 97,87 %
01.01.2019 06:52 6,9 C 6,7 C 6,1 C 95 % 1026,9 hPa 0,0 l/m 0 min 0 min 0 W/m 19,3 km/h (3 Bft) 95,92 %
01.01.2019 06:54 6,9 C 6,7 C 6,1 C 95 % 1026,9 hPa 0,0 l/m 0 min 0 min 0 W/m 12,9 km/h (3 Bft) 95,74 %
01.01.2019 06:56 6,9 C 6,7 C 6,1 C 95 % 1027,0 hPa 0,0 l/m 0 min 0 min 0 W/m 25,7 km/h (4 Bft) 97,87 %
01.01.2019 06:58 6,9 C 6,7 C 6,1 C 95 % 1027,0 hPa 0,0 l/m 0 min 0 min 0 W/m 22,5 km/h (4 Bft) 97,56 %
01.01.2019 07:00 6,9 C 6,7 C 6,1 C 95 % 1026,9 hPa 0,0 l/m 0 min 0 min 0 W/m 12,9 km/h (3 Bft) 96,00 %
01.01.2019 07:02 6,9 C 6,7 C 6,1 C 95 % 1026,9 hPa 0,0 l/m 0 min 0 min 0 W/m 12,9 km/h (3 Bft) 95,74 %
01.01.2019 07:04 6,9 C 6,7 C 6,1 C 95 % 1026,9 hPa 0,0 l/m 0 min 0 min 0 W/m 12,9 km/h (3 Bft) 95,92 %
01.01.2019 07:06 6,9 C 6,7 C 6,1 C 94 % 1026,9 hPa 0,0 l/m 0 min 0 min 0 W/m 22,5 km/h (4 Bft) 95,74 %
01.01.2019 07:08 6,9 C 6,7 C 6,1 C 94 % 1027,0 hPa 0,0 l/m 0 min 0 min 0 W/m 22,5 km/h (4 Bft) 97,87 %
01.01.2019 07:10 6,9 C 6,7 C 6,1 C 94 % 1027,0 hPa 0,0 l/m 0 min 0 min 0 W/m 22,5 km/h (4 Bft) 97,83 %
01.01.2019 07:12 6,9 C 6,7 C 6,1 C 94 % 1027,1 hPa 0,0 l/m 0 min 0 min 0 W/m 19,3 km/h (3 Bft) 100,00 %
01.01.2019 07:14 6,9 C 6,7 C 6,1 C 94 % 1027,0 hPa 0,0 l/m 0 min 0 min 0 W/m 16,1 km/h (3 Bft) 96,77 %
01.01.2019 07:16 6,9 C 6,7 C 6,1 C 94 % 1026,9 hPa 0,0 l/m 0 min 0 min 0 W/m 16,1 km/h (3 Bft) 95,92 %
01.01.2019 07:18 6,9 C 6,7 C 6,1 C 94 % 1026,9 hPa 0,0 l/m 0 min 0 min 0 W/m 16,1 km/h (3 Bft) 97,87 %
01.01.2019 07:20 6,9 C 6,7 C 6,1 C 94 % 1026,9 hPa 0,0 l/m 0 min 0 min 0 W/m 12,9 km/h (3 Bft) 97,56 %
01.01.2019 07:22 6,9 C 6,7 C 6,1 C 94 % 1026,9 hPa 0,0 l/m 0 min 0 min 0 W/m 12,9 km/h (3 Bft) 96,00 %
01.01.2019 07:24 6,9 C 6,7 C 6,1 C 94 % 1027,0 hPa 0,0 l/m 0 min 0 min 0 W/m 9,7 km/h (2 Bft) 95,92 %
01.01.2019 07:26 6,9 C 6,7 C 6,1 C 94 % 1027,1 hPa 0,0 l/m 0 min 0 min 0 W/m 12,9 km/h (3 Bft) 95,74 %
01.01.2019 07:28 6,9 C 6,7 C 6,1 C 94 % 1027,1 hPa 0,0 l/m 0 min 0 min 0 W/m 12,9 km/h (3 Bft) 95,74 %
01.01.2019 07:30 6,9 C 6,7 C 6,1 C 94 % 1026,9 hPa 0,0 l/m 0 min 0 min 0 W/m 9,7 km/h (2 Bft) 95,12 %
01.01.2019 07:32 6,9 C 6,7 C 6,1 C 94 % 1026,9 hPa 0,0 l/m 0 min 0 min 0 W/m 6,4 km/h (2 Bft) 94,00 %
01.01.2019 07:34 6,9 C 6,7 C 6,1 C 94 % 1026,9 hPa 0,0 l/m 0 min 0 min 0 W/m 9,7 km/h (2 Bft) 97,96 %
01.01.2019 07:36 6,9 C 6,7 C 6,1 C 94 % 1027,0 hPa 0,0 l/m 0 min 0 min 0 W/m 9,7 km/h (2 Bft) 95,74 %
01.01.2019 07:38 6,9 C 6,7 C 6,1 C 94 % 1027,0 hPa 0,0 l/m 0 min 0 min 0 W/m 16,1 km/h (3 Bft) 97,62 %
01.01.2019 07:40 6,9 C 6,7 C 6,1 C 94 % 1027,0 hPa 0,0 l/m 0 min 0 min 0 W/m 12,9 km/h (3 Bft) 97,87 %
01.01.2019 07:42 6,9 C 6,7 C 6,1 C 94 % 1027,0 hPa 0,0 l/m 0 min 0 min 0 W/m 12,9 km/h (3 Bft) 95,92 %
01.01.2019 07:44 6,9 C 6,7 C 6,1 C 94 % 1026,9 hPa 0,0 l/m 0 min 0 min 0 W/m 9,7 km/h (2 Bft) 96,00 %
01.01.2019 07:46 6,9 C 6,7 C 6,1 C 94 % 1027,0 hPa 0,0 l/m 0 min 0 min 0 W/m 16,1 km/h (3 Bft) 95,65 %
01.01.2019 07:48 6,9 C 6,7 C 5,6 C 94 % 1027,0 hPa 0,0 l/m 0 min 0 min 0 W/m 22,5 km/h (4 Bft) 95,74 %
01.01.2019 07:50 6,9 C 6,7 C 6,1 C 94 % 1027,0 hPa 0,0 l/m 0 min 0 min 0 W/m 16,1 km/h (3 Bft) 95,24 %
01.01.2019 07:52 6,9 C 6,7 C 6,1 C 94 % 1026,9 hPa 0,0 l/m 0 min 0 min 0 W/m 16,1 km/h (3 Bft) 89,80 %
01.01.2019 07:54 6,9 C 6,7 C 6,1 C 94 % 1026,9 hPa 0,0 l/m 0 min 0 min 0 W/m 16,1 km/h (3 Bft) 96,00 %
01.01.2019 07:56 6,9 C 6,7 C 6,1 C 94 % 1027,0 hPa 0,0 l/m 0 min 0 min 0 W/m 19,3 km/h (3 Bft) 95,65 %
01.01.2019 07:58 6,9 C 6,7 C 5,6 C 94 % 1026,9 hPa 0,0 l/m 0 min 0 min 0 W/m 16,1 km/h (3 Bft) 95,24 %
01.01.2019 08:00 6,9 C 6,7 C 5,6 C 94 % 1026,9 hPa 0,0 l/m 0 min 0 min 0 W/m 9,7 km/h (2 Bft) 96,15 %
01.01.2019 08:02 6,9 C 6,7 C 5,6 C 94 % 1026,9 hPa 0,0 l/m 0 min 0 min 0 W/m 12,9 km/h (3 Bft) 91,43 %
01.01.2019 08:04 6,9 C 6,7 C 6,1 C 94 % 1026,9 hPa 0,0 l/m 0 min 0 min 0 W/m 12,9 km/h (3 Bft) 94,92 %
01.01.2019 08:06 6,9 C 6,7 C 6,1 C 94 % 1026,9 hPa 0,0 l/m 0 min 0 min 0 W/m 12,9 km/h (3 Bft) 93,62 %
01.01.2019 08:08 6,9 C 6,7 C 6,1 C 94 % 1026,9 hPa 0,0 l/m 0 min 0 min 0 W/m 16,1 km/h (3 Bft) 97,87 %
01.01.2019 08:10 6,9 C 6,7 C 6,1 C 94 % 1026,9 hPa 0,0 l/m 0 min 0 min 0 W/m 9,7 km/h (2 Bft) 97,83 %
01.01.2019 08:12 6,9 C 6,7 C 6,1 C 94 % 1026,8 hPa 0,0 l/m 0 min 0 min 0 W/m 12,9 km/h (3 Bft) 97,87 %
01.01.2019 08:14 6,9 C 6,7 C 6,1 C 94 % 1026,9 hPa 0,0 l/m 0 min 0 min 0 W/m 9,7 km/h (2 Bft) 97,67 %
01.01.2019 08:16 6,9 C 6,7 C 6,1 C 94 % 1026,9 hPa 0,0 l/m 0 min 0 min 0 W/m 9,7 km/h (2 Bft) 97,83 %
01.01.2019 08:18 6,9 C 6,7 C 6,1 C 94 % 1026,9 hPa 0,0 l/m 0 min 0 min 0 W/m 16,1 km/h (3 Bft) 98,00 %
01.01.2019 08:20 6,9 C 6,7 C 6,1 C 94 % 1026,8 hPa 0,0 l/m 0 min 0 min 0 W/m 16,1 km/h (3 Bft) 95,83 %
01.01.2019 08:22 6,9 C 6,7 C 6,1 C 94 % 1026,8 hPa 0,0 l/m 0 min 0 min 0 W/m 9,7 km/h (2 Bft) 97,87 %
01.01.2019 08:24 6,9 C 6,7 C 6,1 C 94 % 1026,8 hPa 0,0 l/m 0 min 0 min 0 W/m 12,9 km/h (3 Bft) 97,67 %
01.01.2019 08:26 6,9 C 6,7 C 6,1 C 94 % 1026,9 hPa 0,0 l/m 0 min 0 min 0 W/m 12,9 km/h (3 Bft) 97,96 %
01.01.2019 08:28 6,9 C 6,7 C 5,6 C 94 % 1026,8 hPa 0,0 l/m 0 min 0 min 0 W/m 12,9 km/h (3 Bft) 97,96 %
01.01.2019 08:30 6,9 C 6,7 C 6,1 C 94 % 1026,8 hPa 0,0 l/m 0 min 0 min 0 W/m 16,1 km/h (3 Bft) 97,87 %
01.01.2019 08:32 6,9 C 6,7 C 6,1 C 94 % 1026,9 hPa 0,0 l/m 0 min 0 min 0 W/m 12,9 km/h (3 Bft) 100,00 %
01.01.2019 08:34 6,9 C 6,7 C 6,1 C 94 % 1026,8 hPa 0,0 l/m 0 min 0 min 0 W/m 16,1 km/h (3 Bft) 100,00 %
01.01.2019 08:36 6,9 C 6,7 C 6,1 C 94 % 1026,8 hPa 0,0 l/m 0 min 0 min 0 W/m 19,3 km/h (3 Bft) 100,00 %
01.01.2019 08:38 6,9 C 6,7 C 6,1 C 94 % 1026,8 hPa 0,0 l/m 0 min 0 min 0 W/m 16,1 km/h (3 Bft) 97,83 %
01.01.2019 08:40 6,9 C 6,7 C 6,1 C 94 % 1026,8 hPa 0,0 l/m 0 min 0 min 0 W/m 12,9 km/h (3 Bft) 95,74 %
01.01.2019 08:42 6,9 C 6,7 C 5,6 C 94 % 1026,7 hPa 0,0 l/m 0 min 0 min 0 W/m 12,9 km/h (3 Bft) 100,00 %
01.01.2019 08:44 6,9 C 6,1 C 5,6 C 94 % 1026,8 hPa 0,0 l/m 0 min 0 min 0 W/m 16,1 km/h (3 Bft) 100,00 %
01.01.2019 08:46 6,9 C 6,7 C 5,6 C 94 % 1026,8 hPa 0,0 l/m 0 min 0 min 0 W/m 19,3 km/h (3 Bft) 100,00 %
01.01.2019 08:48 6,9 C 6,7 C 5,6 C 94 % 1026,9 hPa 0,0 l/m 0 min 0 min 0 W/m 16,1 km/h (3 Bft) 100,00 %
01.01.2019 08:50 6,9 C 6,7 C 5,6 C 94 % 1026,8 hPa 0,0 l/m 0 min 0 min 0 W/m 16,1 km/h (3 Bft) 100,00 %
01.01.2019 08:52 6,9 C 6,7 C 5,6 C 94 % 1026,9 hPa 0,0 l/m 0 min 0 min 0 W/m 19,3 km/h (3 Bft) 100,00 %
01.01.2019 08:54 6,9 C 6,7 C 6,1 C 94 % 1026,8 hPa 0,0 l/m 0 min 0 min 0 W/m 22,5 km/h (4 Bft) 100,00 %
01.01.2019 08:56 6,9 C 6,7 C 6,1 C 94 % 1026,8 hPa 0,0 l/m 0 min 0 min 0 W/m 9,7 km/h (2 Bft) 100,00 %
01.01.2019 08:58 6,9 C 6,7 C 6,1 C 94 % 1026,8 hPa 0,0 l/m 0 min 0 min 0 W/m 16,1 km/h (3 Bft) 100,00 %
01.01.2019 09:00 6,9 C 6,7 C 5,6 C 94 % 1026,9 hPa 0,0 l/m 0 min 0 min 0 W/m 19,3 km/h (3 Bft) 97,87 %
01.01.2019 09:02 6,9 C 6,1 C 5,6 C 94 % 1026,8 hPa 0,0 l/m 0 min 2 min 0 W/m 9,7 km/h (2 Bft) 100,00 %
01.01.2019 09:04 6,9 C 6,1 C 5,6 C 94 % 1026,9 hPa 0,0 l/m 0 min 2 min 0 W/m 9,7 km/h (2 Bft) 98,00 %
01.01.2019 09:06 6,9 C 6,1 C 5,6 C 94 % 1026,8 hPa 0,0 l/m 0 min 0 min 0 W/m 16,1 km/h (3 Bft) 97,92 %
01.01.2019 09:08 6,9 C 6,1 C 5,6 C 94 % 1026,8 hPa 0,0 l/m 0 min 0 min 0 W/m 16,1 km/h (3 Bft) 100,00 %
01.01.2019 09:10 6,9 C 6,1 C 5,6 C 94 % 1026,8 hPa 0,0 l/m 0 min 2 min 1 W/m 16,1 km/h (3 Bft) 100,00 %
01.01.2019 09:12 6,9 C 6,1 C 5,6 C 94 % 1026,8 hPa 0,0 l/m 0 min 0 min 5 W/m 9,7 km/h (2 Bft) 100,00 %
01.01.2019 09:14 6,9 C 6,1 C 5,6 C 94 % 1026,7 hPa 0,0 l/m 0 min 2 min 5 W/m 16,1 km/h (3 Bft) 97,83 %
01.01.2019 09:16 6,9 C 6,1 C 5,6 C 94 % 1026,7 hPa 0,0 l/m 0 min 0 min 5 W/m 9,7 km/h (2 Bft) 100,00 %
01.01.2019 09:18 6,9 C 6,1 C 5,6 C 94 % 1026,7 hPa 0,0 l/m 0 min 2 min 5 W/m 9,7 km/h (2 Bft) 100,00 %
01.01.2019 09:20 6,9 C 6,1 C 5,6 C 94 % 1026,7 hPa 0,0 l/m 0 min 2 min 5 W/m 16,1 km/h (3 Bft) 100,00 %
01.01.2019 09:22 6,9 C 6,1 C 5,6 C 94 % 1026,7 hPa 0,0 l/m 0 min 2 min 4 W/m 9,7 km/h (2 Bft) 100,00 %
01.01.2019 09:24 6,9 C 6,1 C 5,6 C 94 % 1026,7 hPa 0,0 l/m 0 min 2 min 0 W/m 12,9 km/h (3 Bft) 100,00 %
01.01.2019 09:26 6,9 C 6,1 C 5,6 C 94 % 1026,6 hPa 0,0 l/m 0 min 2 min 0 W/m 16,1 km/h (3 Bft) 100,00 %
01.01.2019 09:28 6,9 C 6,1 C 5,6 C 94 % 1026,6 hPa 0,0 l/m 0 min 2 min 4 W/m 19,3 km/h (3 Bft) 100,00 %
01.01.2019 09:30 6,9 C 6,1 C 5,6 C 94 % 1026,5 hPa 0,0 l/m 0 min 2 min 5 W/m 16,1 km/h (3 Bft) 100,00 %
01.01.2019 09:32 6,9 C 6,1 C 5,6 C 94 % 1026,6 hPa 0,0 l/m 0 min 2 min 5 W/m 12,9 km/h (3 Bft) 100,00 %
01.01.2019 09:34 6,9 C 6,1 C 5,6 C 94 % 1026,6 hPa 0,0 l/m 0 min 2 min 8 W/m 12,9 km/h (3 Bft) 100,00 %
01.01.2019 09:36 6,8 C 6,1 C 5,6 C 94 % 1026,7 hPa 0,0 l/m 0 min 0 min 7 W/m 19,3 km/h (3 Bft) 100,00 %
01.01.2019 09:38 6,8 C 6,1 C 5,6 C 94 % 1026,7 hPa 0,0 l/m 0 min 2 min 8 W/m 16,1 km/h (3 Bft) 95,74 %
01.01.2019 09:40 6,8 C 6,1 C 5,6 C 94 % 1026,5 hPa 0,0 l/m 0 min 2 min 9 W/m 16,1 km/h (3 Bft) 100,00 %
01.01.2019 09:42 6,8 C 6,1 C 5,6 C 94 % 1026,5 hPa 0,0 l/m 0 min 2 min 10 W/m 16,1 km/h (3 Bft) 100,00 %
01.01.2019 09:44 6,8 C 6,1 C 5,6 C 94 % 1026,5 hPa 0,0 l/m 0 min 2 min 11 W/m 19,3 km/h (3 Bft) 97,96 %
01.01.2019 09:46 6,8 C 6,1 C 5,6 C 95 % 1026,5 hPa 0,0 l/m 0 min 2 min 11 W/m 22,5 km/h (4 Bft) 100,00 %
01.01.2019 09:48 6,8 C 6,1 C 5,6 C 95 % 1026,4 hPa 0,0 l/m 0 min 2 min 12 W/m 9,7 km/h (2 Bft) 100,00 %
01.01.2019 09:50 6,8 C 6,1 C 5,6 C 95 % 1026,5 hPa 0,0 l/m 0 min 0 min 11 W/m 19,3 km/h (3 Bft) 97,96 %
01.01.2019 09:52 6,8 C 6,1 C 5,6 C 95 % 1026,4 hPa 0,0 l/m 0 min 0 min 11 W/m 19,3 km/h (3 Bft) 96,00 %
01.01.2019 09:54 6,8 C 6,1 C 5,6 C 95 % 1026,4 hPa 0,0 l/m 0 min 0 min 11 W/m 12,9 km/h (3 Bft) 95,65 %
01.01.2019 09:56 6,8 C 6,1 C 5,6 C 95 % 1026,4 hPa 0,0 l/m 0 min 0 min 12 W/m 12,9 km/h (3 Bft) 97,62 %
01.01.2019 09:58 6,8 C 6,1 C 5,6 C 95 % 1026,4 hPa 0,2 l/m 0 min 0 min 15 W/m 12,9 km/h (3 Bft) 96,00 %
01.01.2019 10:00 6,8 C 6,1 C 5,6 C 95 % 1026,3 hPa 0,0 l/m 0 min 0 min 16 W/m 16,1 km/h (3 Bft) 95,92 %
01.01.2019 10:02 6,8 C 6,1 C 5,6 C 95 % 1026,3 hPa 0,0 l/m 0 min 0 min 12 W/m 12,9 km/h (3 Bft) 93,62 %
01.01.2019 10:04 6,8 C 6,1 C 5,6 C 95 % 1026,3 hPa 0,0 l/m 0 min 0 min 14 W/m 16,1 km/h (3 Bft) 92,68 %
01.01.2019 10:06 6,8 C 6,1 C 5,6 C 95 % 1026,3 hPa 0,0 l/m 0 min 0 min 16 W/m 12,9 km/h (3 Bft) 96,08 %
01.01.2019 10:08 6,8 C 6,1 C 5,6 C 95 % 1026,3 hPa 0,0 l/m 0 min 0 min 17 W/m 12,9 km/h (3 Bft) 97,92 %
01.01.2019 10:10 6,8 C 6,1 C 5,6 C 95 % 1026,2 hPa 0,0 l/m 0 min 0 min 15 W/m 16,1 km/h (3 Bft) 97,87 %
01.01.2019 10:12 6,8 C 6,1 C 5,6 C 95 % 1026,3 hPa 0,0 l/m 0 min 0 min 14 W/m 9,7 km/h (2 Bft) 91,43 %
01.01.2019 10:14 6,8 C 6,1 C 5,6 C 95 % 1026,3 hPa 0,0 l/m 0 min 0 min 12 W/m 9,7 km/h (2 Bft) 96,43 %
01.01.2019 10:16 6,8 C 6,1 C 5,6 C 95 % 1026,2 hPa 0,0 l/m 0 min 0 min 12 W/m 16,1 km/h (3 Bft) 93,88 %
01.01.2019 10:18 6,8 C 6,1 C 5,6 C 95 % 1026,3 hPa 0,0 l/m 0 min 0 min 12 W/m 22,5 km/h (4 Bft) 82,98 %
01.01.2019 10:20 6,8 C 6,1 C 5,6 C 95 % 1026,2 hPa 0,0 l/m 0 min 0 min 12 W/m 9,7 km/h (2 Bft) 80,95 %
01.01.2019 10:22 6,8 C 6,1 C 5,6 C 95 % 1026,2 hPa 0,0 l/m 0 min 0 min 14 W/m 16,1 km/h (3 Bft) 56,00 %
01.01.2019 10:24 6,8 C 6,1 C 5,6 C 95 % 1026,2 hPa 0,0 l/m 0 min 0 min 14 W/m 16,1 km/h (3 Bft) 75,51 %
01.01.2019 10:26 6,8 C 6,1 C 5,6 C 96 % 1026,1 hPa 0,0 l/m 0 min 0 min 15 W/m 16,1 km/h (3 Bft) 87,23 %
01.01.2019 10:28 6,8 C 6,1 C 5,6 C 96 % 1026,1 hPa 0,0 l/m 0 min 0 min 16 W/m 12,9 km/h (3 Bft) 85,37 %
01.01.2019 10:30 6,8 C 6,1 C 5,6 C 96 % 1026,1 hPa 0,0 l/m 0 min 0 min 14 W/m 9,7 km/h (2 Bft) 80,85 %
01.01.2019 10:32 6,8 C 6,1 C 5,6 C 96 % 1026,1 hPa 0,0 l/m 0 min 0 min 14 W/m 16,1 km/h (3 Bft) 84,00 %
01.01.2019 10:34 6,8 C 6,1 C 5,6 C 96 % 1026,0 hPa 0,0 l/m 0 min 0 min 15 W/m 16,1 km/h (3 Bft) 89,80 %
01.01.2019 10:36 6,8 C 6,1 C 5,6 C 96 % 1025,9 hPa 0,0 l/m 0 min 0 min 14 W/m 16,1 km/h (3 Bft) 93,62 %
01.01.2019 10:38 6,8 C 6,1 C 5,6 C 96 % 1025,9 hPa 0,0 l/m 0 min 0 min 14 W/m 19,3 km/h (3 Bft) 80,85 %
01.01.2019 10:40 6,8 C 6,1 C 5,6 C 96 % 1025,9 hPa 0,0 l/m 0 min 2 min 19 W/m 12,9 km/h (3 Bft) 89,13 %
01.01.2019 10:42 6,8 C 6,1 C 5,6 C 96 % 1025,9 hPa 0,0 l/m 0 min 2 min 21 W/m 12,9 km/h (3 Bft) 85,71 %
01.01.2019 10:44 6,8 C 6,1 C 5,6 C 96 % 1025,9 hPa 0,0 l/m 0 min 2 min 23 W/m 16,1 km/h (3 Bft) 86,00 %
01.01.2019 10:46 6,8 C 6,1 C 5,6 C 96 % 1025,9 hPa 0,0 l/m 0 min 2 min 21 W/m 12,9 km/h (3 Bft) 89,80 %
01.01.2019 10:48 6,8 C 6,1 C 5,6 C 96 % 1025,9 hPa 0,0 l/m 0 min 2 min 20 W/m 16,1 km/h (3 Bft) 89,36 %
01.01.2019 10:50 6,8 C 6,1 C 5,6 C 96 % 1025,9 hPa 0,0 l/m 0 min 2 min 19 W/m 9,7 km/h (2 Bft) 95,74 %
01.01.2019 10:52 6,8 C 6,1 C 5,6 C 96 % 1025,9 hPa 0,0 l/m 0 min 2 min 18 W/m 12,9 km/h (3 Bft) 93,48 %
01.01.2019 10:54 6,9 C 6,1 C 5,6 C 96 % 1025,8 hPa 0,0 l/m 0 min 2 min 20 W/m 16,1 km/h (3 Bft) 97,62 %
01.01.2019 10:56 6,9 C 6,1 C 5,6 C 96 % 1025,8 hPa 0,0 l/m 0 min 2 min 19 W/m 16,1 km/h (3 Bft) 90,00 %
01.01.2019 10:58 6,9 C 6,1 C 5,6 C 96 % 1025,8 hPa 0,0 l/m 0 min 2 min 19 W/m 19,3 km/h (3 Bft) 93,88 %
01.01.2019 11:00 6,9 C 6,1 C 5,6 C 96 % 1025,8 hPa 0,0 l/m 0 min 0 min 25 W/m 16,1 km/h (3 Bft) 95,74 %
01.01.2019 11:02 6,9 C 6,1 C 5,6 C 96 % 1025,8 hPa 0,0 l/m 0 min 0 min 29 W/m 35,4 km/h (5 Bft) 95,12 %
01.01.2019 11:04 6,9 C 6,1 C 5,6 C 96 % 1025,9 hPa 0,0 l/m 0 min 0 min 29 W/m 22,5 km/h (4 Bft) 100,00 %
01.01.2019 11:06 6,9 C 6,1 C 5,6 C 96 % 1025,8 hPa 0,0 l/m 0 min 0 min 27 W/m 16,1 km/h (3 Bft) 95,92 %
01.01.2019 11:08 6,9 C 6,1 C 5,6 C 96 % 1025,8 hPa 0,0 l/m 0 min 0 min 22 W/m 16,1 km/h (3 Bft) 97,87 %
01.01.2019 11:10 6,9 C 6,1 C 5,6 C 97 % 1025,8 hPa 0,0 l/m 0 min 0 min 22 W/m 16,1 km/h (3 Bft) 97,87 %
01.01.2019 11:12 6,9 C 6,1 C 5,6 C 97 % 1025,8 hPa 0,0 l/m 0 min 0 min 23 W/m 16,1 km/h (3 Bft) 95,74 %
01.01.2019 11:14 6,9 C 6,1 C 5,6 C 97 % 1025,9 hPa 0,0 l/m 0 min 0 min 21 W/m 12,9 km/h (3 Bft) 95,12 %
01.01.2019 11:16 6,9 C 6,1 C 5,6 C 97 % 1025,9 hPa 0,0 l/m 0 min 0 min 19 W/m 22,5 km/h (4 Bft) 98,00 %
01.01.2019 11:18 6,9 C 6,1 C 5,6 C 97 % 1025,9 hPa 0,0 l/m 0 min 0 min 27 W/m 16,1 km/h (3 Bft) 100,00 %
01.01.2019 11:20 6,9 C 6,1 C 5,6 C 97 % 1025,8 hPa 0,0 l/m 0 min 0 min 25 W/m 29,0 km/h (5 Bft) 95,74 %
01.01.2019 11:22 6,9 C 6,1 C 5,6 C 97 % 1025,9 hPa 0,0 l/m 0 min 0 min 19 W/m 16,1 km/h (3 Bft) 95,24 %
01.01.2019 11:24 6,9 C 6,1 C 5,6 C 97 % 1025,8 hPa 0,0 l/m 0 min 0 min 24 W/m 22,5 km/h (4 Bft) 95,92 %
01.01.2019 11:26 6,9 C 6,1 C 5,6 C 97 % 1025,8 hPa 0,0 l/m 0 min 0 min 27 W/m 16,1 km/h (3 Bft) 91,84 %
01.01.2019 11:28 6,9 C 6,1 C 5,6 C 97 % 1025,7 hPa 0,0 l/m 0 min 0 min 24 W/m 29,0 km/h (5 Bft) 95,74 %
01.01.2019 11:30 6,9 C 6,1 C 5,6 C 97 % 1025,7 hPa 0,0 l/m 0 min 0 min 22 W/m 12,9 km/h (3 Bft) 97,62 %
01.01.2019 11:32 7,0 C 6,1 C 5,6 C 97 % 1025,7 hPa 0,0 l/m 0 min 0 min 23 W/m 16,1 km/h (3 Bft) 100,00 %
01.01.2019 11:34 7,0 C 6,1 C 5,6 C 97 % 1025,7 hPa 0,0 l/m 0 min 0 min 23 W/m 22,5 km/h (4 Bft) 100,00 %
01.01.2019 11:36 7,0 C 6,1 C 5,6 C 97 % 1025,6 hPa 0,0 l/m 0 min 0 min 31 W/m 16,1 km/h (3 Bft) 97,87 %
01.01.2019 11:38 7,0 C 6,1 C 5,6 C 97 % 1025,7 hPa 0,0 l/m 0 min 0 min 22 W/m 22,5 km/h (4 Bft) 80,43 %
01.01.2019 11:40 7,0 C 6,1 C 5,6 C 97 % 1025,6 hPa 0,0 l/m 0 min 0 min 21 W/m 22,5 km/h (4 Bft) 89,36 %
01.01.2019 11:42 7,0 C 6,1 C 5,6 C 97 % 1025,7 hPa 0,0 l/m 0 min 0 min 25 W/m 16,1 km/h (3 Bft) 80,85 %
01.01.2019 11:44 7,0 C 6,1 C 5,6 C 97 % 1025,6 hPa 0,0 l/m 0 min 0 min 27 W/m 29,0 km/h (5 Bft) 87,23 %
01.01.2019 11:46 7,0 C 6,1 C 5,6 C 97 % 1025,6 hPa 0,0 l/m 0 min 0 min 33 W/m 16,1 km/h (3 Bft) 91,49 %
01.01.2019 11:48 7,0 C 6,1 C 5,6 C 97 % 1025,7 hPa 0,0 l/m 0 min 0 min 30 W/m 9,7 km/h (2 Bft) 72,34 %
01.01.2019 11:50 7,1 C 6,1 C 5,6 C 97 % 1025,6 hPa 0,0 l/m 0 min 0 min 26 W/m 19,3 km/h (3 Bft) 92,68 %
01.01.2019 11:52 7,1 C 6,1 C 5,6 C 97 % 1025,7 hPa 0,0 l/m 0 min 0 min 24 W/m 19,3 km/h (3 Bft) 72,00 %
01.01.2019 11:54 7,1 C 6,7 C 5,6 C 97 % 1025,8 hPa 0,0 l/m 0 min 0 min 28 W/m 19,3 km/h (3 Bft) 83,67 %
01.01.2019 11:56 7,1 C 6,7 C 5,6 C 97 % 1025,8 hPa 0,0 l/m 0 min 0 min 27 W/m 19,3 km/h (3 Bft) 100,00 %
01.01.2019 11:58 7,1 C 6,7 C 5,6 C 97 % 1025,7 hPa 0,0 l/m 0 min 0 min 24 W/m 16,1 km/h (3 Bft) 100,00 %
01.01.2019 12:00 7,1 C 6,7 C 6,1 C 97 % 1025,7 hPa 0,0 l/m 0 min 0 min 29 W/m 22,5 km/h (4 Bft) 94,00 %
01.01.2019 12:02 7,1 C 6,7 C 6,1 C 97 % 1025,7 hPa 0,0 l/m 0 min 0 min 31 W/m 16,1 km/h (3 Bft) 95,92 %
01.01.2019 12:04 7,1 C 6,7 C 6,1 C 97 % 1025,7 hPa 0,0 l/m 0 min 0 min 34 W/m 16,1 km/h (3 Bft) 97,87 %
01.01.2019 12:07 7,1 C 6,7 C 6,1 C 97 % 1025,7 hPa 0,0 l/m 0 min 3 min 30 W/m 16,1 km/h (3 Bft) 97,14 %
01.01.2019 12:08 7,2 C 6,7 C 6,1 C 97 % 1025,7 hPa 0,0 l/m 0 min 1 min 27 W/m 12,9 km/h (3 Bft) 100,00 %
01.01.2019 12:10 7,2 C 6,7 C 6,1 C 97 % 1025,7 hPa 0,0 l/m 0 min 0 min 26 W/m 12,9 km/h (3 Bft) 97,87 %
01.01.2019 12:12 7,2 C 6,7 C 6,1 C 97 % 1025,6 hPa 0,0 l/m 0 min 0 min 23 W/m 19,3 km/h (3 Bft) 100,00 %
01.01.2019 12:14 7,2 C 6,7 C 6,1 C 97 % 1025,7 hPa 0,0 l/m 0 min 0 min 23 W/m 12,9 km/h (3 Bft) 97,83 %
01.01.2019 12:16 7,2 C 6,7 C 6,1 C 98 % 1025,5 hPa 0,0 l/m 0 min 0 min 25 W/m 9,7 km/h (2 Bft) 97,87 %
01.01.2019 12:18 7,2 C 6,7 C 6,1 C 98 % 1025,6 hPa 0,0 l/m 0 min 0 min 28 W/m 29,0 km/h (5 Bft) 95,74 %
01.01.2019 12:20 7,2 C 6,7 C 6,1 C 97 % 1025,6 hPa 0,0 l/m 0 min 0 min 31 W/m 19,3 km/h (3 Bft) 100,00 %
01.01.2019 12:22 7,2 C 6,7 C 6,1 C 97 % 1025,5 hPa 0,0 l/m 0 min 0 min 28 W/m 12,9 km/h (3 Bft) 100,00 %
01.01.2019 12:24 7,2 C 6,7 C 6,1 C 97 % 1025,4 hPa 0,0 l/m 0 min 2 min 33 W/m 12,9 km/h (3 Bft) 100,00 %
01.01.2019 12:26 7,2 C 6,7 C 6,1 C 97 % 1025,5 hPa 0,0 l/m 0 min 0 min 36 W/m 9,7 km/h (2 Bft) 100,00 %
01.01.2019 12:28 7,2 C 6,7 C 6,1 C 97 % 1025,4 hPa 0,0 l/m 0 min 0 min 27 W/m 19,3 km/h (3 Bft) 100,00 %
01.01.2019 12:30 7,2 C 6,7 C 6,1 C 98 % 1025,5 hPa 0,0 l/m 0 min 0 min 24 W/m 9,7 km/h (2 Bft) 97,87 %
01.01.2019 12:32 7,2 C 6,7 C 6,1 C 98 % 1025,5 hPa 0,0 l/m 0 min 0 min 26 W/m 12,9 km/h (3 Bft) 97,87 %
01.01.2019 12:34 7,2 C 6,7 C 6,1 C 98 % 1025,4 hPa 0,0 l/m 0 min 0 min 26 W/m 19,3 km/h (3 Bft) 97,87 %
01.01.2019 12:36 7,3 C 6,7 C 6,1 C 98 % 1025,5 hPa 0,0 l/m 0 min 0 min 31 W/m 12,9 km/h (3 Bft) 95,65 %
01.01.2019 12:38 7,3 C 6,7 C 6,1 C 98 % 1025,4 hPa 0,0 l/m 0 min 0 min 37 W/m 19,3 km/h (3 Bft) 100,00 %
01.01.2019 12:40 7,3 C 6,7 C 6,1 C 98 % 1025,4 hPa 0,0 l/m 0 min 2 min 35 W/m 9,7 km/h (2 Bft) 100,00 %
01.01.2019 12:42 7,3 C 6,7 C 6,1 C 98 % 1025,4 hPa 0,2 l/m 0 min 2 min 26 W/m 16,1 km/h (3 Bft) 100,00 %
01.01.2019 12:44 7,3 C 6,7 C 6,1 C 98 % 1025,3 hPa 0,0 l/m 0 min 2 min 28 W/m 19,3 km/h (3 Bft) 100,00 %
01.01.2019 12:46 7,3 C 6,7 C 6,1 C 98 % 1025,2 hPa 0,0 l/m 0 min 2 min 23 W/m 12,9 km/h (3 Bft) 100,00 %
01.01.2019 12:48 7,3 C 6,7 C 6,1 C 98 % 1025,3 hPa 0,0 l/m 0 min 2 min 28 W/m 25,7 km/h (4 Bft) 100,00 %
01.01.2019 12:50 7,3 C 6,7 C 6,1 C 98 % 1025,2 hPa 0,0 l/m 0 min 0 min 43 W/m 12,9 km/h (3 Bft) 97,87 %
01.01.2019 12:52 7,3 C 6,7 C 6,1 C 98 % 1025,3 hPa 0,0 l/m 0 min 2 min 37 W/m 9,7 km/h (2 Bft) 95,74 %
01.01.2019 12:54 7,3 C 6,7 C 6,1 C 98 % 1025,3 hPa 0,0 l/m 0 min 2 min 38 W/m 12,9 km/h (3 Bft) 95,74 %
01.01.2019 12:56 7,4 C 6,7 C 6,1 C 98 % 1025,2 hPa 0,0 l/m 0 min 0 min 45 W/m 12,9 km/h (3 Bft) 93,62 %
01.01.2019 12:58 7,4 C 6,7 C 6,1 C 98 % 1025,3 hPa 0,0 l/m 0 min 0 min 59 W/m 22,5 km/h (4 Bft) 93,62 %
01.01.2019 13:00 7,4 C 6,7 C 6,1 C 98 % 1025,3 hPa 0,0 l/m 0 min 0 min 57 W/m 16,1 km/h (3 Bft) 95,65 %
01.01.2019 13:02 7,4 C 6,7 C 6,1 C 98 % 1025,3 hPa 0,0 l/m 0 min 0 min 49 W/m 12,9 km/h (3 Bft) 93,62 %
01.01.2019 13:04 7,4 C 6,7 C 6,1 C 98 % 1025,2 hPa 0,0 l/m 0 min 0 min 46 W/m 19,3 km/h (3 Bft) 91,49 %
01.01.2019 13:06 7,4 C 6,7 C 6,1 C 98 % 1025,2 hPa 0,0 l/m 0 min 2 min 46 W/m 19,3 km/h (3 Bft) 93,62 %
01.01.2019 13:08 7,5 C 7,2 C 6,7 C 98 % 1025,2 hPa 0,0 l/m 0 min 0 min 43 W/m 9,7 km/h (2 Bft) 91,49 %
01.01.2019 13:10 7,5 C 6,7 C 6,1 C 98 % 1025,2 hPa 0,0 l/m 0 min 0 min 40 W/m 9,7 km/h (2 Bft) 93,62 %
01.01.2019 13:12 7,5 C 7,2 C 6,7 C 98 % 1025,2 hPa 0,0 l/m 0 min 0 min 48 W/m 9,7 km/h (2 Bft) 93,88 %
01.01.2019 13:14 7,5 C 7,2 C 6,7 C 98 % 1025,2 hPa 0,0 l/m 0 min 0 min 51 W/m 9,7 km/h (2 Bft) 93,62 %
01.01.2019 13:16 7,5 C 7,2 C 6,7 C 98 % 1025,2 hPa 0,0 l/m 0 min 2 min 52 W/m 19,3 km/h (3 Bft) 93,62 %
01.01.2019 13:18 7,6 C 7,2 C 6,7 C 98 % 1025,3 hPa 0,0 l/m 0 min 2 min 45 W/m 16,1 km/h (3 Bft) 91,49 %
01.01.2019 13:20 7,6 C 7,2 C 6,7 C 98 % 1025,2 hPa 0,2 l/m 0 min 2 min 42 W/m 12,9 km/h (3 Bft) 91,49 %
01.01.2019 13:22 7,6 C 7,2 C 6,7 C 98 % 1025,2 hPa 0,0 l/m 0 min 0 min 34 W/m 12,9 km/h (3 Bft) 84,78 %
01.01.2019 13:24 7,6 C 6,7 C 6,7 C 98 % 1025,2 hPa 0,0 l/m 0 min 0 min 29 W/m 16,1 km/h (3 Bft) 78,72 %
01.01.2019 13:26 7,6 C 6,7 C 6,7 C 98 % 1025,4 hPa 0,0 l/m 0 min 0 min 27 W/m 22,5 km/h (4 Bft) 93,62 %
01.01.2019 13:28 7,6 C 6,7 C 6,7 C 98 % 1025,2 hPa 0,0 l/m 0 min 0 min 29 W/m 16,1 km/h (3 Bft) 82,98 %
01.01.2019 13:30 7,6 C 6,7 C 6,7 C 98 % 1025,2 hPa 0,0 l/m 0 min 0 min 36 W/m 19,3 km/h (3 Bft) 85,11 %
01.01.2019 13:32 7,6 C 6,7 C 6,7 C 98 % 1025,2 hPa 0,0 l/m 0 min 0 min 37 W/m 9,7 km/h (2 Bft) 95,74 %
01.01.2019 13:34 7,6 C 7,2 C 6,7 C 98 % 1025,2 hPa 0,0 l/m 0 min 0 min 35 W/m 12,9 km/h (3 Bft) 91,30 %
01.01.2019 13:36 7,6 C 7,2 C 6,7 C 98 % 1025,2 hPa 0,0 l/m 0 min 2 min 34 W/m 12,9 km/h (3 Bft) 85,11 %
01.01.2019 13:38 7,6 C 7,2 C 6,7 C 98 % 1025,2 hPa 0,0 l/m 0 min 0 min 36 W/m 16,1 km/h (3 Bft) 91,49 %
01.01.2019 13:40 7,6 C 7,2 C 6,7 C 98 % 1025,2 hPa 0,0 l/m 0 min 0 min 32 W/m 12,9 km/h (3 Bft) 93,62 %
01.01.2019 13:42 7,6 C 7,2 C 6,7 C 98 % 1025,1 hPa 0,0 l/m 0 min 0 min 35 W/m 9,7 km/h (2 Bft) 95,74 %
01.01.2019 13:44 7,6 C 7,2 C 6,7 C 98 % 1025,2 hPa 0,0 l/m 0 min 2 min 40 W/m 16,1 km/h (3 Bft) 89,36 %
01.01.2019 13:46 7,6 C 7,2 C 6,7 C 98 % 1025,2 hPa 0,0 l/m 0 min 0 min 36 W/m 16,1 km/h (3 Bft) 91,30 %
01.01.2019 13:48 7,6 C 7,2 C 6,7 C 98 % 1025,1 hPa 0,0 l/m 0 min 0 min 35 W/m 12,9 km/h (3 Bft) 91,49 %
01.01.2019 13:50 7,6 C 7,2 C 6,7 C 98 % 1025,2 hPa 0,0 l/m 0 min 2 min 47 W/m 9,7 km/h (2 Bft) 87,23 %
01.01.2019 13:52 7,7 C 7,2 C 6,7 C 98 % 1025,1 hPa 0,0 l/m 0 min 2 min 37 W/m 22,5 km/h (4 Bft) 89,36 %
01.01.2019 13:54 7,7 C 7,2 C 6,7 C 98 % 1025,3 hPa 0,0 l/m 0 min 2 min 19 W/m 16,1 km/h (3 Bft) 95,74 %
01.01.2019 13:56 7,7 C 6,7 C 6,7 C 98 % 1025,5 hPa 0,2 l/m 0 min 2 min 16 W/m 19,3 km/h (3 Bft) 93,62 %
01.01.2019 13:58 7,7 C 6,7 C 6,7 C 98 % 1025,5 hPa 0,2 l/m 0 min 2 min 13 W/m 16,1 km/h (3 Bft) 91,30 %
01.01.2019 14:00 7,6 C 6,7 C 6,7 C 98 % 1025,6 hPa 0,2 l/m 0 min 2 min 19 W/m 19,3 km/h (3 Bft) 95,74 %
01.01.2019 14:02 7,7 C 6,7 C 6,7 C 98 % 1025,5 hPa 0,0 l/m 0 min 2 min 24 W/m 19,3 km/h (3 Bft) 97,87 %
01.01.2019 14:04 7,7 C 6,7 C 6,7 C 98 % 1025,5 hPa 0,2 l/m 0 min 2 min 29 W/m 16,1 km/h (3 Bft) 97,87 %
01.01.2019 14:06 7,7 C 6,7 C 6,7 C 98 % 1025,4 hPa 0,0 l/m 0 min 2 min 33 W/m 6,4 km/h (2 Bft) 97,87 %
01.01.2019 14:08 7,7 C 6,7 C 6,7 C 98 % 1025,4 hPa 0,0 l/m 0 min 0 min 46 W/m 16,1 km/h (3 Bft) 100,00 %
01.01.2019 14:10 7,6 C 6,7 C 6,7 C 98 % 1025,4 hPa 0,0 l/m 0 min 0 min 52 W/m 16,1 km/h (3 Bft) 95,65 %
01.01.2019 14:12 7,6 C 6,7 C 6,7 C 98 % 1025,4 hPa 0,0 l/m 0 min 2 min 35 W/m 16,1 km/h (3 Bft) 100,00 %
01.01.2019 14:14 7,6 C 6,7 C 6,1 C 98 % 1025,3 hPa 0,0 l/m 0 min 2 min 28 W/m 16,1 km/h (3 Bft) 95,74 %
01.01.2019 14:16 7,6 C 6,7 C 6,1 C 98 % 1025,2 hPa 0,0 l/m 0 min 2 min 39 W/m 19,3 km/h (3 Bft) 95,74 %
01.01.2019 14:18 7,5 C 6,7 C 6,1 C 98 % 1025,2 hPa 0,0 l/m 0 min 0 min 43 W/m 25,7 km/h (4 Bft) 91,49 %
01.01.2019 14:20 7,5 C 6,7 C 6,1 C 98 % 1025,1 hPa 0,0 l/m 0 min 0 min 38 W/m 16,1 km/h (3 Bft) 95,74 %
01.01.2019 14:22 7,4 C 6,7 C 6,1 C 98 % 1025,1 hPa 0,0 l/m 0 min 0 min 41 W/m 9,7 km/h (2 Bft) 100,00 %
01.01.2019 14:24 7,4 C 6,7 C 6,1 C 98 % 1025,2 hPa 0,0 l/m 0 min 0 min 47 W/m 16,1 km/h (3 Bft) 100,00 %
01.01.2019 14:26 7,4 C 6,7 C 6,1 C 98 % 1025,2 hPa 0,0 l/m 0 min 0 min 55 W/m 12,9 km/h (3 Bft) 87,23 %
01.01.2019 14:28 7,4 C 6,7 C 6,1 C 98 % 1025,3 hPa 0,0 l/m 0 min 0 min 55 W/m 9,7 km/h (2 Bft) 87,23 %
01.01.2019 14:30 7,4 C 6,7 C 6,1 C 98 % 1025,2 hPa 0,0 l/m 0 min 0 min 58 W/m 9,7 km/h (2 Bft) 89,36 %
01.01.2019 14:32 7,3 C 6,7 C 6,1 C 98 % 1025,2 hPa 0,0 l/m 0 min 2 min 61 W/m 12,9 km/h (3 Bft) 82,98 %
01.01.2019 14:34 7,3 C 6,7 C 6,1 C 98 % 1025,2 hPa 0,0 l/m 0 min 0 min 67 W/m 9,7 km/h (2 Bft) 80,43 %
01.01.2019 14:36 7,3 C 6,7 C 6,1 C 98 % 1025,1 hPa 0,0 l/m 0 min 0 min 66 W/m 12,9 km/h (3 Bft) 82,98 %
01.01.2019 14:38 7,3 C 6,7 C 6,1 C 98 % 1025,2 hPa 0,0 l/m 0 min 0 min 64 W/m 9,7 km/h (2 Bft) 87,23 %
01.01.2019 14:40 7,3 C 6,7 C 6,1 C 98 % 1025,2 hPa 0,0 l/m 0 min 0 min 71 W/m 16,1 km/h (3 Bft) 76,60 %
01.01.2019 14:42 7,3 C 7,2 C 6,1 C 98 % 1025,2 hPa 0,0 l/m 2 min 0 min 108 W/m 12,9 km/h (3 Bft) 65,71 %
01.01.2019 14:44 7,3 C 7,2 C 6,7 C 98 % 1025,2 hPa 0,0 l/m 2 min 0 min 116 W/m 9,7 km/h (2 Bft) 65,96 %
01.01.2019 14:46 7,4 C 7,2 C 6,7 C 98 % 1025,2 hPa 0,0 l/m 2 min 0 min 124 W/m 16,1 km/h (3 Bft) 65,96 %
01.01.2019 14:48 7,4 C 7,2 C 6,7 C 98 % 1025,2 hPa 0,0 l/m 0 min 0 min 98 W/m 12,9 km/h (3 Bft) 71,74 %
01.01.2019 14:50 7,4 C 7,2 C 6,7 C 98 % 1025,3 hPa 0,0 l/m 0 min 0 min 72 W/m 16,1 km/h (3 Bft) 86,44 %
01.01.2019 14:52 7,5 C 7,2 C 6,7 C 98 % 1025,3 hPa 0,0 l/m 0 min 0 min 67 W/m 16,1 km/h (3 Bft) 82,98 %
01.01.2019 14:54 7,6 C 7,2 C 6,7 C 98 % 1025,3 hPa 0,0 l/m 0 min 0 min 51 W/m 9,7 km/h (2 Bft) 80,85 %
01.01.2019 14:56 7,6 C 7,2 C 6,7 C 98 % 1025,4 hPa 0,0 l/m 0 min 0 min 36 W/m 12,9 km/h (3 Bft) 82,61 %
01.01.2019 14:58 7,6 C 7,2 C 6,7 C 98 % 1025,4 hPa 0,0 l/m 0 min 0 min 28 W/m 12,9 km/h (3 Bft) 97,87 %
01.01.2019 15:00 7,6 C 7,2 C 6,7 C 98 % 1025,4 hPa 0,0 l/m 0 min 0 min 17 W/m 12,9 km/h (3 Bft) 100,00 %
01.01.2019 15:02 7,6 C 7,2 C 6,7 C 98 % 1025,5 hPa 0,0 l/m 0 min 0 min 18 W/m 16,1 km/h (3 Bft) 97,87 %
01.01.2019 15:04 7,6 C 7,2 C 6,7 C 99 % 1025,5 hPa 0,0 l/m 0 min 0 min 34 W/m 12,9 km/h (3 Bft) 95,74 %
01.01.2019 15:06 7,6 C 7,2 C 6,7 C 99 % 1025,5 hPa 0,0 l/m 0 min 0 min 42 W/m 12,9 km/h (3 Bft) 98,31 %
01.01.2019 15:08 7,6 C 7,2 C 6,7 C 99 % 1025,6 hPa 0,0 l/m 0 min 0 min 46 W/m 12,9 km/h (3 Bft) 65,22 %
01.01.2019 15:10 7,6 C 7,2 C 6,7 C 99 % 1025,6 hPa 0,0 l/m 0 min 0 min 46 W/m 12,9 km/h (3 Bft) 58,33 %
01.01.2019 15:12 7,7 C 7,2 C 6,7 C 99 % 1025,6 hPa 0,0 l/m 0 min 0 min 30 W/m 16,1 km/h (3 Bft) 82,61 %
01.01.2019 15:14 7,7 C 7,2 C 6,7 C 99 % 1025,6 hPa 0,0 l/m 0 min 0 min 29 W/m 12,9 km/h (3 Bft) 70,21 %
01.01.2019 15:16 7,7 C 7,2 C 6,7 C 99 % 1025,6 hPa 0,0 l/m 0 min 0 min 26 W/m 16,1 km/h (3 Bft) 82,98 %
01.01.2019 15:18 7,7 C 7,2 C 6,7 C 98 % 1025,6 hPa 0,0 l/m 0 min 0 min 24 W/m 22,5 km/h (4 Bft) 91,49 %
01.01.2019 15:20 7,7 C 7,2 C 6,7 C 99 % 1025,7 hPa 0,0 l/m 0 min 0 min 17 W/m 19,3 km/h (3 Bft) 87,93 %
01.01.2019 15:22 7,7 C 7,2 C 6,7 C 98 % 1025,7 hPa 0,0 l/m 0 min 0 min 12 W/m 9,7 km/h (2 Bft) 58,33 %
01.01.2019 15:24 7,7 C 7,2 C 6,7 C 98 % 1025,8 hPa 0,0 l/m 0 min 2 min 12 W/m 9,7 km/h (2 Bft) 69,57 %
01.01.2019 15:26 7,7 C 7,2 C 6,7 C 98 % 1025,8 hPa 0,0 l/m 0 min 2 min 17 W/m 19,3 km/h (3 Bft) 82,98 %
01.01.2019 15:28 7,7 C 7,2 C 6,7 C 98 % 1025,8 hPa 0,0 l/m 0 min 0 min 17 W/m 22,5 km/h (4 Bft) 98,31 %
01.01.2019 15:30 7,6 C 6,7 C 6,1 C 98 % 1025,8 hPa 0,0 l/m 0 min 0 min 16 W/m 25,7 km/h (4 Bft) 82,86 %
01.01.2019 15:32 7,6 C 6,7 C 6,1 C 98 % 1025,8 hPa 0,0 l/m 0 min 0 min 15 W/m 29,0 km/h (5 Bft) 82,76 %
01.01.2019 15:34 7,5 C 6,7 C 6,1 C 98 % 1025,8 hPa 0,0 l/m 0 min 0 min 18 W/m 25,7 km/h (4 Bft) 80,56 %
01.01.2019 15:36 7,4 C 6,7 C 6,1 C 98 % 1025,8 hPa 0,0 l/m 0 min 0 min 23 W/m 32,2 km/h (5 Bft) 86,21 %
01.01.2019 15:38 7,4 C 6,7 C 6,1 C 98 % 1025,8 hPa 0,0 l/m 0 min 0 min 23 W/m 19,3 km/h (3 Bft) 93,62 %
01.01.2019 15:40 7,3 C 6,7 C 6,1 C 98 % 1025,8 hPa 0,0 l/m 0 min 0 min 20 W/m 19,3 km/h (3 Bft) 88,57 %
01.01.2019 15:42 7,3 C 6,7 C 6,1 C 98 % 1025,8 hPa 0,0 l/m 0 min 0 min 19 W/m 32,2 km/h (5 Bft) 82,98 %
01.01.2019 15:44 7,2 C 6,7 C 6,1 C 98 % 1025,8 hPa 0,0 l/m 0 min 0 min 22 W/m 29,0 km/h (5 Bft) 89,36 %
01.01.2019 15:46 7,2 C 6,7 C 6,1 C 98 % 1025,8 hPa 0,0 l/m 0 min 0 min 25 W/m 22,5 km/h (4 Bft) 97,83 %
01.01.2019 15:48 7,2 C 6,7 C 6,1 C 98 % 1025,8 hPa 0,0 l/m 0 min 0 min 35 W/m 19,3 km/h (3 Bft) 95,74 %
01.01.2019 15:50 7,2 C 6,7 C 6,1 C 98 % 1025,8 hPa 0,0 l/m 2 min 0 min 50 W/m 12,9 km/h (3 Bft) 93,62 %
01.01.2019 15:52 7,2 C 6,7 C 6,1 C 98 % 1025,8 hPa 0,0 l/m 2 min 0 min 73 W/m 12,9 km/h (3 Bft) 88,14 %
01.01.2019 15:54 7,2 C 6,7 C 6,1 C 98 % 1025,8 hPa 0,0 l/m 2 min 0 min 70 W/m 16,1 km/h (3 Bft) 91,43 %
01.01.2019 15:56 7,2 C 6,7 C 6,1 C 98 % 1025,8 hPa 0,0 l/m 2 min 0 min 53 W/m 32,2 km/h (5 Bft) 93,62 %
01.01.2019 15:58 7,2 C 6,7 C 6,1 C 98 % 1025,8 hPa 0,0 l/m 2 min 0 min 41 W/m 29,0 km/h (5 Bft) 93,10 %
01.01.2019 16:00 7,2 C 6,7 C 6,1 C 98 % 1025,8 hPa 0,0 l/m 2 min 0 min 39 W/m 16,1 km/h (3 Bft) 95,74 %
01.01.2019 16:02 7,2 C 6,7 C 6,1 C 98 % 1025,9 hPa 0,0 l/m 2 min 0 min 34 W/m 25,7 km/h (4 Bft) 93,62 %
01.01.2019 16:04 7,1 C 6,1 C 5,6 C 98 % 1025,8 hPa 0,0 l/m 0 min 0 min 29 W/m 22,5 km/h (4 Bft) 85,71 %
01.01.2019 16:06 7,1 C 6,1 C 5,6 C 98 % 1026,0 hPa 0,0 l/m 0 min 0 min 22 W/m 38,6 km/h (5 Bft) 98,28 %
01.01.2019 16:08 7,1 C 6,1 C 5,6 C 98 % 1026,0 hPa 0,0 l/m 0 min 0 min 19 W/m 25,7 km/h (4 Bft) 91,49 %
01.01.2019 16:10 7,0 C 6,1 C 5,6 C 98 % 1025,9 hPa 0,0 l/m 0 min 0 min 16 W/m 25,7 km/h (4 Bft) 94,29 %
01.01.2019 16:12 6,9 C 6,1 C 5,6 C 97 % 1025,9 hPa 0,0 l/m 0 min 0 min 14 W/m 25,7 km/h (4 Bft) 97,87 %
01.01.2019 16:14 6,8 C 5,6 C 5,6 C 97 % 1025,9 hPa 0,0 l/m 0 min 0 min 13 W/m 19,3 km/h (3 Bft) 94,64 %
01.01.2019 16:16 6,8 C 5,6 C 5,0 C 97 % 1026,0 hPa 0,0 l/m 0 min 0 min 12 W/m 19,3 km/h (3 Bft) 95,74 %
01.01.2019 16:18 6,7 C 5,6 C 5,0 C 97 % 1026,0 hPa 0,0 l/m 0 min 0 min 11 W/m 19,3 km/h (3 Bft) 95,74 %
01.01.2019 16:20 6,7 C 5,6 C 5,0 C 97 % 1025,9 hPa 0,0 l/m 0 min 0 min 11 W/m 19,3 km/h (3 Bft) 93,62 %
01.01.2019 16:22 6,6 C 5,6 C 5,0 C 97 % 1025,9 hPa 0,0 l/m 0 min 0 min 12 W/m 16,1 km/h (3 Bft) 93,62 %
01.01.2019 16:24 6,6 C 5,6 C 5,0 C 97 % 1025,9 hPa 0,0 l/m 0 min 0 min 12 W/m 22,5 km/h (4 Bft) 93,62 %
01.01.2019 16:26 6,6 C 5,6 C 5,0 C 97 % 1025,9 hPa 0,0 l/m 0 min 0 min 10 W/m 12,9 km/h (3 Bft) 95,65 %
01.01.2019 16:28 6,5 C 5,6 C 5,0 C 97 % 1026,0 hPa 0,0 l/m 0 min 0 min 8 W/m 16,1 km/h (3 Bft) 95,74 %
01.01.2019 16:30 6,5 C 5,6 C 5,0 C 97 % 1026,0 hPa 0,0 l/m 0 min 0 min 6 W/m 16,1 km/h (3 Bft) 95,74 %
01.01.2019 16:32 6,4 C 5,6 C 5,0 C 96 % 1026,0 hPa 0,0 l/m 0 min 0 min 5 W/m 12,9 km/h (3 Bft) 91,49 %
01.01.2019 16:34 6,4 C 5,6 C 5,0 C 96 % 1026,0 hPa 0,0 l/m 0 min 0 min 2 W/m 12,9 km/h (3 Bft) 95,74 %
01.01.2019 16:36 6,4 C 5,6 C 5,0 C 96 % 1026,0 hPa 0,0 l/m 0 min 0 min 0 W/m 9,7 km/h (2 Bft) 93,48 %
01.01.2019 16:38 6,4 C 5,6 C 5,0 C 96 % 1026,0 hPa 0,0 l/m 0 min 0 min 0 W/m 9,7 km/h (2 Bft) 95,74 %
01.01.2019 16:40 6,4 C 5,6 C 5,0 C 96 % 1026,0 hPa 0,0 l/m 0 min 0 min 0 W/m 16,1 km/h (3 Bft) 95,74 %
01.01.2019 16:42 6,4 C 5,6 C 5,0 C 96 % 1026,0 hPa 0,0 l/m 0 min 0 min 0 W/m 12,9 km/h (3 Bft) 95,74 %
01.01.2019 16:44 6,4 C 5,6 C 5,0 C 96 % 1026,1 hPa 0,0 l/m 0 min 0 min 0 W/m 9,7 km/h (2 Bft) 95,74 %
01.01.2019 16:46 6,4 C 5,6 C 5,0 C 96 % 1026,0 hPa 0,0 l/m 0 min 0 min 0 W/m 9,7 km/h (2 Bft) 95,74 %
01.01.2019 16:48 6,4 C 5,6 C 5,0 C 96 % 1026,0 hPa 0,0 l/m 0 min 0 min 0 W/m 9,7 km/h (2 Bft) 91,30 %
01.01.2019 16:50 6,4 C 5,0 C 5,0 C 96 % 1026,0 hPa 0,0 l/m 0 min 0 min 0 W/m 12,9 km/h (3 Bft) 95,74 %
01.01.2019 16:52 6,3 C 5,0 C 5,0 C 96 % 1026,0 hPa 0,0 l/m 0 min 0 min 0 W/m 9,7 km/h (2 Bft) 97,87 %
01.01.2019 16:54 6,3 C 5,0 C 4,4 C 95 % 1026,0 hPa 0,0 l/m 0 min 0 min 0 W/m 19,3 km/h (3 Bft) 97,87 %
01.01.2019 16:56 6,2 C 5,0 C 4,4 C 95 % 1026,0 hPa 0,0 l/m 0 min 0 min 0 W/m 19,3 km/h (3 Bft) 97,87 %
01.01.2019 16:58 6,2 C 5,0 C 4,4 C 95 % 1026,0 hPa 0,0 l/m 0 min 0 min 0 W/m 12,9 km/h (3 Bft) 97,87 %
01.01.2019 17:00 6,2 C 5,0 C 4,4 C 95 % 1026,1 hPa 0,0 l/m 0 min 0 min 0 W/m 22,5 km/h (4 Bft) 97,83 %
01.01.2019 17:02 6,1 C 5,0 C 4,4 C 95 % 1026,1 hPa 0,0 l/m 0 min 0 min 0 W/m 25,7 km/h (4 Bft) 95,74 %
01.01.2019 17:04 6,1 C 5,0 C 4,4 C 95 % 1026,1 hPa 0,0 l/m 0 min 0 min 0 W/m 12,9 km/h (3 Bft) 97,87 %
01.01.2019 17:06 6,1 C 5,0 C 4,4 C 95 % 1026,2 hPa 0,0 l/m 0 min 0 min 0 W/m 22,5 km/h (4 Bft) 97,87 %
01.01.2019 17:08 6,1 C 5,0 C 5,0 C 95 % 1026,2 hPa 0,0 l/m 0 min 0 min 0 W/m 22,5 km/h (4 Bft) 97,87 %
01.01.2019 17:10 6,1 C 5,0 C 5,0 C 94 % 1026,2 hPa 0,0 l/m 0 min 0 min 0 W/m 19,3 km/h (3 Bft) 100,00 %
01.01.2019 17:12 6,1 C 5,0 C 5,0 C 94 % 1026,2 hPa 0,0 l/m 0 min 0 min 0 W/m 12,9 km/h (3 Bft) 100,00 %
01.01.2019 17:14 6,1 C 5,0 C 4,4 C 94 % 1026,2 hPa 0,0 l/m 0 min 0 min 0 W/m 22,5 km/h (4 Bft) 97,87 %
01.01.2019 17:16 6,1 C 5,0 C 4,4 C 94 % 1026,3 hPa 0,0 l/m 0 min 2 min 0 W/m 22,5 km/h (4 Bft) 97,87 %
01.01.2019 17:18 6,1 C 5,0 C 5,0 C 94 % 1026,4 hPa 0,0 l/m 0 min 0 min 0 W/m 12,9 km/h (3 Bft) 100,00 %
01.01.2019 17:20 6,1 C 5,0 C 4,4 C 94 % 1026,4 hPa 0,0 l/m 0 min 2 min 0 W/m 19,3 km/h (3 Bft) 100,00 %
01.01.2019 17:22 6,1 C 5,0 C 4,4 C 93 % 1026,5 hPa 0,0 l/m 0 min 2 min 0 W/m 19,3 km/h (3 Bft) 100,00 %
01.01.2019 17:24 6,1 C 5,0 C 4,4 C 94 % 1026,6 hPa 0,0 l/m 0 min 2 min 0 W/m 16,1 km/h (3 Bft) 97,83 %
01.01.2019 17:26 6,1 C 5,0 C 4,4 C 93 % 1026,6 hPa 0,0 l/m 0 min 2 min 0 W/m 22,5 km/h (4 Bft) 100,00 %
01.01.2019 17:28 6,1 C 5,0 C 4,4 C 93 % 1026,6 hPa 0,0 l/m 0 min 2 min 0 W/m 16,1 km/h (3 Bft) 97,87 %
01.01.2019 17:30 6,1 C 5,0 C 4,4 C 93 % 1026,7 hPa 0,0 l/m 0 min 2 min 0 W/m 25,7 km/h (4 Bft) 100,00 %
01.01.2019 17:32 6,2 C 5,0 C 4,4 C 93 % 1026,6 hPa 0,2 l/m 0 min 2 min 0 W/m 22,5 km/h (4 Bft) 97,87 %
01.01.2019 17:34 6,2 C 5,0 C 4,4 C 93 % 1026,7 hPa 0,0 l/m 0 min 2 min 0 W/m 19,3 km/h (3 Bft) 100,00 %
01.01.2019 17:36 6,2 C 5,0 C 4,4 C 93 % 1026,7 hPa 0,0 l/m 0 min 2 min 0 W/m 22,5 km/h (4 Bft) 97,83 %
01.01.2019 17:38 6,2 C 5,0 C 4,4 C 93 % 1026,7 hPa 0,0 l/m 0 min 2 min 0 W/m 22,5 km/h (4 Bft) 100,00 %
01.01.2019 17:40 6,1 C 5,0 C 4,4 C 93 % 1026,7 hPa 0,0 l/m 0 min 2 min 0 W/m 16,1 km/h (3 Bft) 100,00 %
01.01.2019 17:42 6,1 C 5,0 C 4,4 C 93 % 1026,8 hPa 0,0 l/m 0 min 2 min 0 W/m 25,7 km/h (4 Bft) 95,74 %
01.01.2019 17:44 6,1 C 5,0 C 4,4 C 93 % 1026,7 hPa 0,2 l/m 0 min 2 min 0 W/m 19,3 km/h (3 Bft) 100,00 %
01.01.2019 17:46 6,1 C 4,4 C 4,4 C 93 % 1026,8 hPa 0,0 l/m 0 min 2 min 0 W/m 19,3 km/h (3 Bft) 100,00 %
01.01.2019 17:48 6,1 C 4,4 C 4,4 C 93 % 1026,7 hPa 0,0 l/m 0 min 2 min 0 W/m 19,3 km/h (3 Bft) 100,00 %
01.01.2019 17:50 6,1 C 4,4 C 4,4 C 93 % 1026,9 hPa 0,0 l/m 0 min 2 min 0 W/m 22,5 km/h (4 Bft) 100,00 %
01.01.2019 17:52 6,0 C 4,4 C 4,4 C 93 % 1026,8 hPa 0,0 l/m 0 min 2 min 0 W/m 16,1 km/h (3 Bft) 100,00 %
01.01.2019 17:54 6,0 C 5,0 C 4,4 C 93 % 1026,9 hPa 0,0 l/m 0 min 2 min 0 W/m 12,9 km/h (3 Bft) 100,00 %
01.01.2019 17:56 6,0 C 5,0 C 4,4 C 93 % 1026,9 hPa 0,0 l/m 0 min 2 min 0 W/m 19,3 km/h (3 Bft) 95,74 %
01.01.2019 17:58 6,0 C 5,0 C 4,4 C 93 % 1027,0 hPa 0,0 l/m 0 min 2 min 0 W/m 25,7 km/h (4 Bft) 97,83 %
01.01.2019 18:00 6,0 C 5,0 C 4,4 C 93 % 1026,8 hPa 0,0 l/m 0 min 2 min 0 W/m 22,5 km/h (4 Bft) 97,87 %
01.01.2019 18:02 5,9 C 4,4 C 4,4 C 93 % 1026,9 hPa 0,0 l/m 0 min 2 min 0 W/m 12,9 km/h (3 Bft) 97,87 %
01.01.2019 18:04 5,9 C 4,4 C 3,9 C 93 % 1026,9 hPa 0,0 l/m 0 min 2 min 0 W/m 29,0 km/h (5 Bft) 97,87 %
01.01.2019 18:07 5,9 C 4,4 C 3,9 C 93 % 1027,0 hPa 0,0 l/m 0 min 3 min 0 W/m 25,7 km/h (4 Bft) 97,14 %
01.01.2019 18:08 5,9 C 4,4 C 3,9 C 93 % 1027,0 hPa 0,0 l/m 0 min 1 min 0 W/m 12,9 km/h (3 Bft) 95,83 %
01.01.2019 18:10 5,8 C 4,4 C 3,9 C 93 % 1027,0 hPa 0,0 l/m 0 min 2 min 0 W/m 16,1 km/h (3 Bft) 97,83 %
01.01.2019 18:12 5,8 C 4,4 C 3,9 C 93 % 1027,0 hPa 0,0 l/m 0 min 2 min 0 W/m 16,1 km/h (3 Bft) 97,87 %
01.01.2019 18:14 5,8 C 4,4 C 3,9 C 93 % 1027,0 hPa 0,0 l/m 0 min 2 min 0 W/m 19,3 km/h (3 Bft) 97,87 %
01.01.2019 18:16 5,8 C 4,4 C 3,9 C 93 % 1027,0 hPa 0,0 l/m 0 min 2 min 0 W/m 12,9 km/h (3 Bft) 97,87 %
01.01.2019 18:18 5,7 C 4,4 C 3,9 C 93 % 1027,0 hPa 0,0 l/m 0 min 2 min 0 W/m 19,3 km/h (3 Bft) 97,87 %
01.01.2019 18:20 5,7 C 4,4 C 3,9 C 93 % 1027,0 hPa 0,0 l/m 0 min 2 min 0 W/m 12,9 km/h (3 Bft) 97,87 %
01.01.2019 18:22 5,7 C 4,4 C 3,9 C 93 % 1027,1 hPa 0,0 l/m 0 min 2 min 0 W/m 16,1 km/h (3 Bft) 95,65 %
01.01.2019 18:24 5,7 C 4,4 C 3,9 C 93 % 1027,0 hPa 0,0 l/m 0 min 0 min 0 W/m 16,1 km/h (3 Bft) 95,74 %
01.01.2019 18:26 5,7 C 4,4 C 3,9 C 93 % 1027,0 hPa 0,0 l/m 0 min 2 min 0 W/m 22,5 km/h (4 Bft) 95,74 %
01.01.2019 18:28 5,7 C 4,4 C 3,9 C 93 % 1027,2 hPa 0,0 l/m 0 min 2 min 0 W/m 12,9 km/h (3 Bft) 97,87 %
01.01.2019 18:30 5,7 C 4,4 C 3,9 C 93 % 1027,1 hPa 0,0 l/m 0 min 0 min 0 W/m 12,9 km/h (3 Bft) 95,74 %
01.01.2019 18:32 5,7 C 4,4 C 3,9 C 93 % 1027,1 hPa 0,0 l/m 0 min 2 min 0 W/m 16,1 km/h (3 Bft) 93,62 %
01.01.2019 18:34 5,7 C 4,4 C 3,9 C 93 % 1027,1 hPa 0,0 l/m 0 min 0 min 0 W/m 22,5 km/h (4 Bft) 97,96 %
01.01.2019 18:36 5,7 C 4,4 C 3,9 C 93 % 1027,0 hPa 0,0 l/m 0 min 0 min 0 W/m 16,1 km/h (3 Bft) 97,87 %
01.01.2019 18:38 5,7 C 4,4 C 3,9 C 93 % 1027,1 hPa 0,0 l/m 0 min 0 min 0 W/m 16,1 km/h (3 Bft) 93,48 %
01.01.2019 18:40 5,7 C 4,4 C 3,9 C 93 % 1027,1 hPa 0,0 l/m 0 min 0 min 0 W/m 16,1 km/h (3 Bft) 95,74 %
01.01.2019 18:42 5,7 C 4,4 C 3,9 C 93 % 1027,1 hPa 0,0 l/m 0 min 0 min 0 W/m 22,5 km/h (4 Bft) 95,74 %
01.01.2019 18:44 5,7 C 4,4 C 3,9 C 93 % 1027,1 hPa 0,0 l/m 0 min 0 min 0 W/m 12,9 km/h (3 Bft) 97,87 %
01.01.2019 18:46 5,7 C 4,4 C 3,9 C 93 % 1027,1 hPa 0,0 l/m 0 min 0 min 0 W/m 12,9 km/h (3 Bft) 97,87 %
01.01.2019 18:48 5,7 C 5,0 C 4,4 C 93 % 1027,1 hPa 0,0 l/m 0 min 2 min 0 W/m 12,9 km/h (3 Bft) 95,74 %
01.01.2019 18:50 5,7 C 5,0 C 4,4 C 93 % 1027,2 hPa 0,0 l/m 0 min 2 min 0 W/m 22,5 km/h (4 Bft) 97,83 %
01.01.2019 18:52 5,7 C 4,4 C 4,4 C 93 % 1027,2 hPa 0,0 l/m 0 min 2 min 0 W/m 22,5 km/h (4 Bft) 97,87 %
01.01.2019 18:54 5,7 C 4,4 C 3,9 C 93 % 1027,2 hPa 0,0 l/m 0 min 2 min 0 W/m 29,0 km/h (5 Bft) 97,87 %
01.01.2019 18:56 5,7 C 4,4 C 3,9 C 93 % 1027,5 hPa 0,0 l/m 0 min 2 min 0 W/m 57,9 km/h (7 Bft) 97,87 %
01.01.2019 18:58 5,6 C 4,4 C 3,9 C 92 % 1027,4 hPa 0,0 l/m 0 min 2 min 0 W/m 48,3 km/h (6 Bft) 95,74 %
01.01.2019 19:00 5,6 C 4,4 C 3,9 C 92 % 1027,4 hPa 0,0 l/m 0 min 2 min 0 W/m 38,6 km/h (5 Bft) 97,87 %
01.01.2019 19:02 5,5 C 4,4 C 3,9 C 92 % 1027,5 hPa 0,0 l/m 0 min 2 min 0 W/m 54,7 km/h (7 Bft) 95,65 %
01.01.2019 19:04 5,4 C 3,9 C 3,9 C 91 % 1027,4 hPa 0,2 l/m 0 min 2 min 0 W/m 41,8 km/h (6 Bft) 97,87 %
01.01.2019 19:06 5,4 C 3,9 C 3,3 C 91 % 1027,4 hPa 0,0 l/m 0 min 2 min 0 W/m 38,6 km/h (5 Bft) 97,87 %
01.01.2019 19:08 5,3 C 3,9 C 3,3 C 91 % 1027,4 hPa 0,0 l/m 0 min 2 min 0 W/m 29,0 km/h (5 Bft) 97,87 %
01.01.2019 19:10 5,3 C 3,9 C 3,3 C 91 % 1027,4 hPa 0,0 l/m 0 min 2 min 0 W/m 25,7 km/h (4 Bft) 97,87 %
01.01.2019 19:12 5,2 C 3,9 C 3,3 C 91 % 1027,4 hPa 0,0 l/m 0 min 0 min 0 W/m 25,7 km/h (4 Bft) 95,74 %
01.01.2019 19:14 5,2 C 3,9 C 3,3 C 91 % 1027,5 hPa 0,0 l/m 0 min 0 min 0 W/m 25,7 km/h (4 Bft) 97,83 %
01.01.2019 19:16 5,2 C 3,9 C 3,3 C 92 % 1027,5 hPa 0,0 l/m 0 min 2 min 0 W/m 19,3 km/h (3 Bft) 97,87 %
01.01.2019 19:18 5,2 C 4,4 C 3,3 C 91 % 1027,5 hPa 0,0 l/m 0 min 0 min 0 W/m 22,5 km/h (4 Bft) 100,00 %
01.01.2019 19:20 5,1 C 4,4 C 3,3 C 92 % 1027,5 hPa 0,0 l/m 0 min 0 min 0 W/m 22,5 km/h (4 Bft) 100,00 %
01.01.2019 19:22 5,2 C 4,4 C 3,9 C 92 % 1027,7 hPa 0,0 l/m 0 min 2 min 0 W/m 22,5 km/h (4 Bft) 100,00 %
01.01.2019 19:24 5,2 C 4,4 C 3,9 C 92 % 1027,8 hPa 0,0 l/m 0 min 0 min 0 W/m 29,0 km/h (5 Bft) 95,74 %
01.01.2019 19:26 5,2 C 4,4 C 3,9 C 92 % 1027,8 hPa 0,0 l/m 0 min 0 min 0 W/m 25,7 km/h (4 Bft) 97,83 %
01.01.2019 19:28 5,2 C 4,4 C 3,9 C 92 % 1027,7 hPa 0,0 l/m 0 min 0 min 0 W/m 29,0 km/h (5 Bft) 100,00 %
01.01.2019 19:30 5,2 C 4,4 C 3,9 C 92 % 1027,7 hPa 0,0 l/m 0 min 2 min 0 W/m 16,1 km/h (3 Bft) 100,00 %
01.01.2019 19:32 5,2 C 4,4 C 3,9 C 92 % 1027,7 hPa 0,0 l/m 0 min 0 min 0 W/m 12,9 km/h (3 Bft) 97,87 %
01.01.2019 19:34 5,2 C 4,4 C 3,3 C 92 % 1027,7 hPa 0,0 l/m 0 min 0 min 0 W/m 19,3 km/h (3 Bft) 97,87 %
01.01.2019 19:36 5,1 C 4,4 C 3,3 C 92 % 1027,7 hPa 0,0 l/m 0 min 2 min 0 W/m 32,2 km/h (5 Bft) 97,83 %
01.01.2019 19:38 5,1 C 4,4 C 3,3 C 92 % 1027,6 hPa 0,0 l/m 0 min 2 min 0 W/m 12,9 km/h (3 Bft) 95,74 %
01.01.2019 19:40 5,1 C 4,4 C 3,3 C 92 % 1027,6 hPa 0,0 l/m 0 min 2 min 0 W/m 19,3 km/h (3 Bft) 97,87 %
01.01.2019 19:42 5,1 C 4,4 C 3,3 C 92 % 1027,6 hPa 0,0 l/m 0 min 0 min 0 W/m 16,1 km/h (3 Bft) 95,74 %
01.01.2019 19:44 5,0 C 4,4 C 3,3 C 92 % 1027,7 hPa 0,0 l/m 0 min 2 min 0 W/m 19,3 km/h (3 Bft) 97,87 %
01.01.2019 19:46 5,0 C 4,4 C 3,3 C 92 % 1027,7 hPa 0,0 l/m 0 min 0 min 0 W/m 16,1 km/h (3 Bft) 97,87 %
01.01.2019 19:48 5,0 C 4,4 C 3,3 C 92 % 1027,8 hPa 0,0 l/m 0 min 0 min 0 W/m 35,4 km/h (5 Bft) 97,83 %
01.01.2019 19:50 5,0 C 4,4 C 3,3 C 92 % 1027,9 hPa 0,0 l/m 0 min 0 min 0 W/m 19,3 km/h (3 Bft) 97,87 %
01.01.2019 19:52 4,9 C 4,4 C 3,3 C 92 % 1027,9 hPa 0,0 l/m 0 min 2 min 0 W/m 19,3 km/h (3 Bft) 97,87 %
01.01.2019 19:54 4,9 C 4,4 C 3,3 C 92 % 1027,9 hPa 0,0 l/m 0 min 0 min 0 W/m 16,1 km/h (3 Bft) 97,87 %
01.01.2019 19:56 4,9 C 4,4 C 3,3 C 92 % 1027,8 hPa 0,0 l/m 0 min 0 min 0 W/m 22,5 km/h (4 Bft) 97,87 %
01.01.2019 19:58 4,9 C 4,4 C 3,3 C 92 % 1027,8 hPa 0,0 l/m 0 min 0 min 0 W/m 19,3 km/h (3 Bft) 95,74 %
01.01.2019 20:00 4,9 C 4,4 C 3,3 C 91 % 1027,6 hPa 0,0 l/m 0 min 0 min 0 W/m 16,1 km/h (3 Bft) 97,83 %
01.01.2019 20:02 4,9 C 4,4 C 3,3 C 91 % 1027,8 hPa 0,0 l/m 0 min 0 min 0 W/m 19,3 km/h (3 Bft) 97,87 %
01.01.2019 20:04 4,9 C 4,4 C 3,3 C 91 % 1027,9 hPa 0,0 l/m 0 min 0 min 0 W/m 25,7 km/h (4 Bft) 97,87 %
01.01.2019 20:06 4,9 C 4,4 C 3,3 C 91 % 1028,1 hPa 0,0 l/m 0 min 0 min 0 W/m 16,1 km/h (3 Bft) 93,62 %
01.01.2019 20:08 4,9 C 4,4 C 3,3 C 91 % 1028,2 hPa 0,0 l/m 0 min 0 min 0 W/m 29,0 km/h (5 Bft) 95,74 %
01.01.2019 20:10 4,9 C 4,4 C 3,3 C 91 % 1028,2 hPa 0,0 l/m 0 min 2 min 0 W/m 29,0 km/h (5 Bft) 97,87 %
01.01.2019 20:12 5,0 C 4,4 C 3,3 C 91 % 1028,2 hPa 0,0 l/m 0 min 2 min 0 W/m 12,9 km/h (3 Bft) 97,83 %
01.01.2019 20:14 5,0 C 4,4 C 3,3 C 91 % 1028,2 hPa 0,0 l/m 0 min 2 min 0 W/m 19,3 km/h (3 Bft) 97,87 %
01.01.2019 20:16 5,0 C 4,4 C 3,3 C 91 % 1028,3 hPa 0,0 l/m 0 min 2 min 0 W/m 19,3 km/h (3 Bft) 97,87 %
01.01.2019 20:18 5,0 C 3,9 C 3,3 C 91 % 1028,2 hPa 0,0 l/m 0 min 2 min 0 W/m 19,3 km/h (3 Bft) 97,87 %
01.01.2019 20:20 5,0 C 3,9 C 3,3 C 91 % 1028,3 hPa 0,2 l/m 0 min 2 min 0 W/m 12,9 km/h (3 Bft) 97,87 %
01.01.2019 20:22 5,0 C 3,9 C 3,3 C 92 % 1028,3 hPa 0,0 l/m 0 min 2 min 0 W/m 16,1 km/h (3 Bft) 97,83 %
01.01.2019 20:24 5,0 C 3,9 C 3,3 C 92 % 1028,3 hPa 0,0 l/m 0 min 2 min 0 W/m 12,9 km/h (3 Bft) 97,87 %
01.01.2019 20:26 4,9 C 3,9 C 3,3 C 92 % 1028,4 hPa 0,0 l/m 0 min 2 min 0 W/m 41,8 km/h (6 Bft) 95,74 %
01.01.2019 20:28 4,9 C 3,9 C 3,3 C 92 % 1028,4 hPa 0,0 l/m 0 min 2 min 0 W/m 19,3 km/h (3 Bft) 97,87 %
01.01.2019 20:30 4,9 C 3,9 C 3,3 C 92 % 1028,4 hPa 0,0 l/m 0 min 2 min 0 W/m 22,5 km/h (4 Bft) 95,74 %
01.01.2019 20:32 4,9 C 3,9 C 3,3 C 92 % 1028,4 hPa 0,0 l/m 0 min 2 min 0 W/m 22,5 km/h (4 Bft) 97,87 %
01.01.2019 20:34 4,9 C 3,9 C 3,3 C 92 % 1028,3 hPa 0,0 l/m 0 min 2 min 0 W/m 29,0 km/h (5 Bft) 95,74 %
01.01.2019 20:36 4,9 C 3,9 C 3,3 C 92 % 1028,3 hPa 0,0 l/m 0 min 2 min 0 W/m 32,2 km/h (5 Bft) 97,83 %
01.01.2019 20:38 4,9 C 3,9 C 3,3 C 92 % 1028,3 hPa 0,0 l/m 0 min 2 min 0 W/m 16,1 km/h (3 Bft) 95,74 %
01.01.2019 20:40 4,9 C 3,9 C 3,3 C 92 % 1028,4 hPa 0,0 l/m 0 min 2 min 0 W/m 22,5 km/h (4 Bft) 95,74 %
01.01.2019 20:42 4,9 C 3,9 C 3,3 C 92 % 1028,4 hPa 0,0 l/m 0 min 2 min 0 W/m 16,1 km/h (3 Bft) 95,74 %
01.01.2019 20:44 4,8 C 3,9 C 3,3 C 92 % 1028,4 hPa 0,0 l/m 0 min 2 min 0 W/m 12,9 km/h (3 Bft) 95,74 %
01.01.2019 20:46 4,8 C 3,9 C 3,3 C 92 % 1028,3 hPa 0,0 l/m 0 min 2 min 0 W/m 12,9 km/h (3 Bft) 97,83 %
01.01.2019 20:48 4,8 C 3,9 C 3,3 C 92 % 1028,4 hPa 0,0 l/m 0 min 2 min 0 W/m 12,9 km/h (3 Bft) 93,62 %
01.01.2019 20:50 4,8 C 3,9 C 3,3 C 92 % 1028,3 hPa 0,0 l/m 0 min 2 min 0 W/m 12,9 km/h (3 Bft) 95,74 %
01.01.2019 20:52 4,8 C 3,9 C 3,3 C 92 % 1028,3 hPa 0,0 l/m 0 min 2 min 0 W/m 16,1 km/h (3 Bft) 91,49 %
01.01.2019 20:54 4,8 C 3,9 C 3,3 C 92 % 1028,4 hPa 0,0 l/m 0 min 2 min 0 W/m 19,3 km/h (3 Bft) 97,87 %
01.01.2019 20:56 4,8 C 3,9 C 3,3 C 92 % 1028,4 hPa 0,0 l/m 0 min 2 min 0 W/m 22,5 km/h (4 Bft) 93,62 %
01.01.2019 20:58 4,8 C 3,9 C 3,3 C 92 % 1028,4 hPa 0,0 l/m 0 min 2 min 0 W/m 16,1 km/h (3 Bft) 95,65 %
01.01.2019 21:00 4,8 C 3,9 C 3,3 C 92 % 1028,4 hPa 0,0 l/m 0 min 2 min 0 W/m 9,7 km/h (2 Bft) 93,62 %
01.01.2019 21:02 4,8 C 3,9 C 3,3 C 92 % 1028,3 hPa 0,0 l/m 0 min 2 min 0 W/m 16,1 km/h (3 Bft) 97,87 %
01.01.2019 21:04 4,8 C 3,9 C 3,3 C 92 % 1028,3 hPa 0,0 l/m 0 min 2 min 0 W/m 19,3 km/h (3 Bft) 93,62 %
01.01.2019 21:06 4,8 C 3,9 C 3,3 C 92 % 1028,3 hPa 0,0 l/m 0 min 2 min 0 W/m 9,7 km/h (2 Bft) 95,74 %
01.01.2019 21:08 4,8 C 4,4 C 3,3 C 92 % 1028,3 hPa 0,0 l/m 0 min 2 min 0 W/m 22,5 km/h (4 Bft) 93,62 %
01.01.2019 21:10 4,8 C 4,4 C 3,3 C 92 % 1028,4 hPa 0,0 l/m 0 min 2 min 0 W/m 12,9 km/h (3 Bft) 95,65 %
01.01.2019 21:12 4,8 C 4,4 C 3,3 C 92 % 1028,4 hPa 0,0 l/m 0 min 2 min 0 W/m 12,9 km/h (3 Bft) 95,74 %
01.01.2019 21:14 4,8 C 4,4 C 3,3 C 92 % 1028,4 hPa 0,0 l/m 0 min 0 min 0 W/m 9,7 km/h (2 Bft) 95,74 %
01.01.2019 21:16 4,8 C 4,4 C 3,3 C 92 % 1028,3 hPa 0,0 l/m 0 min 0 min 0 W/m 16,1 km/h (3 Bft) 95,74 %
01.01.2019 21:18 4,8 C 4,4 C 3,3 C 92 % 1028,4 hPa 0,0 l/m 0 min 2 min 0 W/m 19,3 km/h (3 Bft) 93,62 %
01.01.2019 21:20 4,8 C 4,4 C 3,3 C 92 % 1028,5 hPa 0,0 l/m 0 min 0 min 0 W/m 16,1 km/h (3 Bft) 95,74 %
01.01.2019 21:22 4,8 C 4,4 C 3,3 C 92 % 1028,5 hPa 0,0 l/m 0 min 0 min 0 W/m 16,1 km/h (3 Bft) 95,65 %
01.01.2019 21:24 4,8 C 4,4 C 3,3 C 92 % 1028,6 hPa 0,0 l/m 0 min 0 min 0 W/m 16,1 km/h (3 Bft) 91,49 %
01.01.2019 21:26 4,8 C 4,4 C 3,3 C 92 % 1028,5 hPa 0,0 l/m 0 min 0 min 0 W/m 19,3 km/h (3 Bft) 95,74 %
01.01.2019 21:28 4,8 C 4,4 C 3,3 C 92 % 1028,7 hPa 0,0 l/m 0 min 0 min 0 W/m 16,1 km/h (3 Bft) 97,87 %
01.01.2019 21:30 4,8 C 4,4 C 3,3 C 92 % 1028,8 hPa 0,0 l/m 0 min 0 min 0 W/m 22,5 km/h (4 Bft) 93,62 %
01.01.2019 21:32 4,8 C 4,4 C 3,3 C 92 % 1028,9 hPa 0,0 l/m 0 min 0 min 0 W/m 19,3 km/h (3 Bft) 97,87 %
01.01.2019 21:34 4,8 C 4,4 C 3,3 C 92 % 1028,7 hPa 0,0 l/m 0 min 0 min 0 W/m 12,9 km/h (3 Bft) 97,83 %
01.01.2019 21:36 4,8 C 4,4 C 3,3 C 92 % 1028,7 hPa 0,0 l/m 0 min 0 min 0 W/m 12,9 km/h (3 Bft) 97,87 %
01.01.2019 21:38 4,8 C 4,4 C 3,3 C 92 % 1028,7 hPa 0,0 l/m 0 min 0 min 0 W/m 16,1 km/h (3 Bft) 95,74 %
01.01.2019 21:40 4,8 C 4,4 C 3,3 C 92 % 1028,8 hPa 0,0 l/m 0 min 0 min 0 W/m 22,5 km/h (4 Bft) 97,87 %
01.01.2019 21:42 4,8 C 4,4 C 3,3 C 92 % 1028,7 hPa 0,0 l/m 0 min 0 min 0 W/m 19,3 km/h (3 Bft) 97,87 %
01.01.2019 21:44 4,8 C 4,4 C 3,3 C 91 % 1028,7 hPa 0,0 l/m 0 min 0 min 0 W/m 12,9 km/h (3 Bft) 97,87 %
01.01.2019 21:46 4,8 C 4,4 C 3,3 C 91 % 1028,7 hPa 0,0 l/m 0 min 0 min 0 W/m 22,5 km/h (4 Bft) 93,48 %
01.01.2019 21:48 4,8 C 4,4 C 3,3 C 91 % 1028,8 hPa 0,0 l/m 0 min 0 min 0 W/m 12,9 km/h (3 Bft) 76,60 %
01.01.2019 21:50 4,8 C 4,4 C 3,3 C 91 % 1028,8 hPa 0,0 l/m 0 min 0 min 0 W/m 9,7 km/h (2 Bft) 93,62 %
01.01.2019 21:52 4,8 C 4,4 C 3,3 C 91 % 1028,8 hPa 0,0 l/m 0 min 0 min 0 W/m 19,3 km/h (3 Bft) 97,87 %
01.01.2019 21:54 4,8 C 4,4 C 3,3 C 91 % 1028,6 hPa 0,0 l/m 0 min 0 min 0 W/m 12,9 km/h (3 Bft) 100,00 %
01.01.2019 21:56 4,8 C 4,4 C 3,3 C 91 % 1028,6 hPa 0,0 l/m 0 min 0 min 0 W/m 9,7 km/h (2 Bft) 100,00 %
01.01.2019 21:58 4,8 C 4,4 C 3,3 C 91 % 1028,7 hPa 0,0 l/m 0 min 0 min 0 W/m 9,7 km/h (2 Bft) 93,48 %
01.01.2019 22:00 4,8 C 4,4 C 3,3 C 91 % 1028,8 hPa 0,0 l/m 0 min 0 min 0 W/m 9,7 km/h (2 Bft) 91,49 %
01.01.2019 22:02 4,8 C 4,4 C 3,3 C 91 % 1028,9 hPa 0,0 l/m 0 min 0 min 0 W/m 16,1 km/h (3 Bft) 89,36 %
01.01.2019 22:04 4,8 C 4,4 C 3,3 C 91 % 1028,7 hPa 0,0 l/m 0 min 0 min 0 W/m 12,9 km/h (3 Bft) 85,11 %
01.01.2019 22:06 4,8 C 4,4 C 3,3 C 91 % 1028,8 hPa 0,0 l/m 0 min 0 min 0 W/m 9,7 km/h (2 Bft) 89,36 %
01.01.2019 22:08 4,8 C 4,4 C 3,3 C 91 % 1028,7 hPa 0,0 l/m 0 min 0 min 0 W/m 12,9 km/h (3 Bft) 97,83 %
01.01.2019 22:10 4,8 C 4,4 C 3,3 C 91 % 1028,6 hPa 0,0 l/m 0 min 0 min 0 W/m 19,3 km/h (3 Bft) 100,00 %
01.01.2019 22:12 4,8 C 4,4 C 3,3 C 91 % 1028,8 hPa 0,0 l/m 0 min 0 min 0 W/m 16,1 km/h (3 Bft) 95,74 %
01.01.2019 22:14 4,8 C 4,4 C 3,3 C 91 % 1028,8 hPa 0,0 l/m 0 min 0 min 0 W/m 9,7 km/h (2 Bft) 97,87 %
01.01.2019 22:16 4,8 C 4,4 C 3,3 C 91 % 1028,9 hPa 0,0 l/m 0 min 0 min 0 W/m 16,1 km/h (3 Bft) 100,00 %
01.01.2019 22:18 4,7 C 4,4 C 3,3 C 91 % 1028,8 hPa 0,0 l/m 0 min 0 min 0 W/m 16,1 km/h (3 Bft) 93,62 %
01.01.2019 22:20 4,7 C 4,4 C 3,3 C 91 % 1028,8 hPa 0,0 l/m 0 min 0 min 0 W/m 9,7 km/h (2 Bft) 100,00 %
01.01.2019 22:22 4,7 C 4,4 C 3,3 C 91 % 1028,8 hPa 0,0 l/m 0 min 0 min 0 W/m 12,9 km/h (3 Bft) 97,87 %
01.01.2019 22:24 4,7 C 4,4 C 3,9 C 90 % 1028,8 hPa 0,0 l/m 0 min 0 min 0 W/m 19,3 km/h (3 Bft) 89,36 %
01.01.2019 22:26 4,7 C 4,4 C 3,9 C 90 % 1028,9 hPa 0,0 l/m 0 min 0 min 0 W/m 12,9 km/h (3 Bft) 89,36 %
01.01.2019 22:28 4,7 C 4,4 C 3,9 C 90 % 1028,9 hPa 0,0 l/m 0 min 0 min 0 W/m 16,1 km/h (3 Bft) 82,98 %
01.01.2019 22:30 4,7 C 4,4 C 3,9 C 90 % 1028,8 hPa 0,0 l/m 0 min 0 min 0 W/m 16,1 km/h (3 Bft) 85,11 %
01.01.2019 22:32 4,7 C 4,4 C 3,9 C 90 % 1028,7 hPa 0,0 l/m 0 min 0 min 0 W/m 16,1 km/h (3 Bft) 93,48 %
01.01.2019 22:34 4,7 C 4,4 C 3,9 C 90 % 1028,7 hPa 0,0 l/m 0 min 0 min 0 W/m 16,1 km/h (3 Bft) 87,23 %
01.01.2019 22:36 4,7 C 4,4 C 3,9 C 90 % 1028,7 hPa 0,0 l/m 0 min 0 min 0 W/m 16,1 km/h (3 Bft) 91,49 %
01.01.2019 22:38 4,7 C 4,4 C 3,9 C 90 % 1028,7 hPa 0,0 l/m 0 min 0 min 0 W/m 16,1 km/h (3 Bft) 89,36 %
01.01.2019 22:40 4,7 C 4,4 C 3,9 C 90 % 1028,7 hPa 0,0 l/m 0 min 0 min 0 W/m 12,9 km/h (3 Bft) 89,36 %
01.01.2019 22:42 4,7 C 4,4 C 3,9 C 90 % 1028,6 hPa 0,0 l/m 0 min 0 min 0 W/m 25,7 km/h (4 Bft) 93,62 %
01.01.2019 22:44 4,7 C 4,4 C 3,9 C 89 % 1028,7 hPa 0,0 l/m 0 min 0 min 0 W/m 12,9 km/h (3 Bft) 95,65 %
01.01.2019 22:46 4,7 C 4,4 C 3,9 C 90 % 1028,6 hPa 0,0 l/m 0 min 0 min 0 W/m 16,1 km/h (3 Bft) 97,87 %
01.01.2019 22:48 4,7 C 4,4 C 3,9 C 89 % 1028,5 hPa 0,0 l/m 0 min 0 min 0 W/m 16,1 km/h (3 Bft) 100,00 %
01.01.2019 22:50 4,7 C 4,4 C 3,9 C 89 % 1028,6 hPa 0,0 l/m 0 min 0 min 0 W/m 12,9 km/h (3 Bft) 100,00 %
01.01.2019 22:52 4,7 C 4,4 C 3,9 C 89 % 1028,8 hPa 0,0 l/m 0 min 0 min 0 W/m 16,1 km/h (3 Bft) 100,00 %
01.01.2019 22:54 4,7 C 4,4 C 3,9 C 89 % 1028,6 hPa 0,0 l/m 0 min 0 min 0 W/m 9,7 km/h (2 Bft) 95,74 %
01.01.2019 22:56 4,7 C 4,4 C 3,9 C 89 % 1028,7 hPa 0,0 l/m 0 min 0 min 0 W/m 12,9 km/h (3 Bft) 97,83 %
01.01.2019 22:58 4,7 C 4,4 C 3,9 C 89 % 1028,7 hPa 0,0 l/m 0 min 0 min 0 W/m 9,7 km/h (2 Bft) 93,62 %
01.01.2019 23:00 4,7 C 4,4 C 3,9 C 89 % 1028,7 hPa 0,0 l/m 0 min 0 min 0 W/m 16,1 km/h (3 Bft) 95,74 %
01.01.2019 23:02 4,7 C 4,4 C 3,9 C 89 % 1028,7 hPa 0,0 l/m 0 min 0 min 0 W/m 19,3 km/h (3 Bft) 95,74 %
01.01.2019 23:04 4,7 C 4,4 C 3,9 C 89 % 1028,5 hPa 0,0 l/m 0 min 0 min 0 W/m 12,9 km/h (3 Bft) 97,87 %
01.01.2019 23:06 4,7 C 4,4 C 3,9 C 88 % 1028,6 hPa 0,0 l/m 0 min 0 min 0 W/m 19,3 km/h (3 Bft) 100,00 %
01.01.2019 23:08 4,7 C 4,4 C 3,9 C 88 % 1028,7 hPa 0,0 l/m 0 min 0 min 0 W/m 9,7 km/h (2 Bft) 95,65 %
01.01.2019 23:10 4,7 C 4,4 C 3,9 C 88 % 1028,6 hPa 0,0 l/m 0 min 0 min 0 W/m 19,3 km/h (3 Bft) 97,87 %
01.01.2019 23:12 4,7 C 4,4 C 3,9 C 88 % 1028,7 hPa 0,0 l/m 0 min 0 min 0 W/m 22,5 km/h (4 Bft) 91,49 %
01.01.2019 23:14 4,7 C 4,4 C 3,9 C 88 % 1028,7 hPa 0,0 l/m 0 min 0 min 0 W/m 19,3 km/h (3 Bft) 95,74 %
01.01.2019 23:16 4,7 C 4,4 C 3,9 C 88 % 1028,7 hPa 0,0 l/m 0 min 0 min 0 W/m 16,1 km/h (3 Bft) 91,49 %
01.01.2019 23:18 4,7 C 3,9 C 3,3 C 88 % 1028,8 hPa 0,0 l/m 0 min 0 min 0 W/m 12,9 km/h (3 Bft) 95,65 %
01.01.2019 23:20 4,7 C 4,4 C 3,3 C 88 % 1028,9 hPa 0,0 l/m 0 min 2 min 0 W/m 19,3 km/h (3 Bft) 93,62 %
01.01.2019 23:22 4,7 C 3,9 C 3,3 C 87 % 1028,8 hPa 0,0 l/m 0 min 2 min 0 W/m 19,3 km/h (3 Bft) 93,75 %
01.01.2019 23:24 4,7 C 3,9 C 3,3 C 87 % 1028,9 hPa 0,0 l/m 0 min 2 min 0 W/m 16,1 km/h (3 Bft) 93,48 %
01.01.2019 23:26 4,7 C 3,9 C 3,3 C 87 % 1029,0 hPa 0,0 l/m 0 min 2 min 0 W/m 22,5 km/h (4 Bft) 91,49 %
01.01.2019 23:28 4,7 C 3,9 C 3,3 C 87 % 1029,1 hPa 0,0 l/m 0 min 2 min 0 W/m 12,9 km/h (3 Bft) 91,49 %
01.01.2019 23:30 4,7 C 3,9 C 3,3 C 87 % 1029,2 hPa 0,0 l/m 0 min 2 min 0 W/m 25,7 km/h (4 Bft) 82,98 %
01.01.2019 23:32 4,7 C 3,9 C 2,8 C 87 % 1029,1 hPa 0,0 l/m 0 min 2 min 0 W/m 25,7 km/h (4 Bft) 87,23 %
01.01.2019 23:34 4,7 C 3,9 C 2,8 C 87 % 1029,1 hPa 0,0 l/m 0 min 2 min 0 W/m 22,5 km/h (4 Bft) 89,36 %
01.01.2019 23:36 4,6 C 3,9 C 2,8 C 87 % 1029,1 hPa 0,0 l/m 0 min 2 min 0 W/m 22,5 km/h (4 Bft) 84,78 %
01.01.2019 23:38 4,6 C 3,3 C 2,8 C 88 % 1029,1 hPa 0,0 l/m 0 min 2 min 0 W/m 41,8 km/h (6 Bft) 87,23 %
01.01.2019 23:40 4,6 C 3,9 C 2,8 C 87 % 1029,2 hPa 0,0 l/m 0 min 2 min 0 W/m 35,4 km/h (5 Bft) 70,21 %
01.01.2019 23:42 4,6 C 3,9 C 2,8 C 87 % 1029,1 hPa 0,0 l/m 0 min 2 min 0 W/m 32,2 km/h (5 Bft) 89,36 %
01.01.2019 23:44 4,5 C 3,9 C 2,8 C 87 % 1029,1 hPa 0,0 l/m 0 min 2 min 0 W/m 19,3 km/h (3 Bft) 93,62 %
01.01.2019 23:46 4,5 C 3,9 C 2,8 C 87 % 1029,1 hPa 0,0 l/m 0 min 2 min 0 W/m 22,5 km/h (4 Bft) 93,62 %
01.01.2019 23:48 4,5 C 3,3 C 2,8 C 87 % 1029,1 hPa 0,0 l/m 0 min 2 min 0 W/m 12,9 km/h (3 Bft) 84,78 %
01.01.2019 23:50 4,4 C 3,9 C 2,8 C 87 % 1029,2 hPa 0,0 l/m 0 min 2 min 0 W/m 22,5 km/h (4 Bft) 87,23 %
01.01.2019 23:52 4,4 C 3,9 C 2,8 C 87 % 1029,1 hPa 0,0 l/m 0 min 2 min 0 W/m 19,3 km/h (3 Bft) 85,11 %
01.01.2019 23:54 4,4 C 3,9 C 3,3 C 86 % 1029,1 hPa 0,0 l/m 0 min 2 min 0 W/m 29,0 km/h (5 Bft) 78,72 %
01.01.2019 23:56 4,4 C 3,3 C 2,8 C 86 % 1029,1 hPa 0,0 l/m 0 min 2 min 0 W/m 22,5 km/h (4 Bft) 82,98 %
01.01.2019 23:58 4,3 C 3,3 C 2,8 C 86 % 1029,1 hPa 0,0 l/m 0 min 2 min 0 W/m 25,7 km/h (4 Bft) 65,22 %
_ Min-Zeit 23:58 23:38 23:32 23:54 13:42 - - - - 00:00 10:22
Minimum _ 4,3 C 3,3 C 2,8 C 86 % 1025,1 hPa - - - - 3,2 km/h (1 Bft) 56,00 %
_ Max-Zeit 00:00 00:00 00:00 15:04 00:08 09:58 14:42 04:24 14:46 18:56 00:36
Maximum _ 7,8 C 7,2 C 6,7 C 99 % 1030,5 hPa 0,2 l/m 2 min 4 min 124 W/m 57,9 km/h
N-NW (7 Bft)
100,00 %
Durchschnitt _ 6,6 C 5,9 C 5,3 C 95 % 1027,4 hPa #2,2 l/m #20 min. #5:52 h 29 W/m 15,8 km/h (3 Bft) 95,10 %
© 2019 W. Hausmann